GEFSSE_500_meanwind_126.txt.gz
Wind_Speed
7 8 7 7 6 5 5 5 5 6 6 6 6 6 6 6 5 4 3 2 1 1 1 2 2 3 4 4 4 4 5 5 4 4 4 4 4 4 4 4 3 4 4
9 9 9 9 8 8 7 7 7 7 8 8 8 8 8 7 7 6 5 4 3 2 1 1 1 2 3 3 3 4 4 3 3 3 3 3 3 3 3 3 3 3 3
11 10 10 10 10 9 9 9 9 9 9 10 10 9 9 9 8 8 7 6 5 4 3 1 0 0 1 2 2 2 2 2 2 2 2 2 2 2 3 3 3 3 3
12 12 12 12 11 11 11 11 11 11 11 11 11 11 11 11 10 9 9 7 7 6 4 3 2 2 1 1 1 1 1 2 2 2 1 1 1 1 2 2 2 3 3
13 14 14 13 13 13 13 13 13 13 12 13 13 13 13 13 12 11 11 10 9 7 6 5 4 3 3 3 3 2 2 2 2 2 2 2 2 2 1 1 2 2 2
13 13 14 15 15 14 14 15 14 14 14 15 15 15 15 15 14 13 13 12 11 10 9 7 6 5 5 5 4 4 4 3 3 3 2 3 2 2 2 2 2 2 2
12 13 14 15 16 16 16 16 16 16 16 16 17 17 17 17 16 15 14 14 13 12 11 9 8 8 7 7 6 6 6 5 5 4 4 4 3 3 3 3 3 3 3
13 14 15 16 16 17 17 17 18 18 18 18 18 19 19 19 18 17 16 16 15 14 13 11 10 10 9 9 8 8 8 7 6 6 6 5 4 4 5 5 4 4 4
15 16 16 16 16 18 18 18 19 20 20 20 20 20 20 20 20 19 18 17 17 16 15 14 13 12 12 11 10 10 10 9 8 8 7 7 6 6 6 6 6 6 6
16 17 17 17 18 19 19 20 20 21 21 21 22 22 22 22 21 21 20 19 18 18 17 16 15 14 14 13 12 12 11 10 10 9 9 9 8 8 8 8 8 8 8
17 17 18 18 19 20 21 21 21 22 23 23 24 24 24 24 23 23 22 21 20 20 19 18 17 17 16 15 14 13 13 12 12 11 10 10 10 10 9 9 9 9 10
18 18 18 19 20 21 22 23 23 23 25 25 25 26 26 26 25 24 24 23 22 22 20 20 19 19 18 17 16 16 15 14 14 13 12 13 12 12 11 11 11 12 12
19 19 19 20 20 21 22 24 24 24 25 25 26 26 27 27 27 25 25 24 24 23 22 22 21 20 19 18 18 17 17 16 16 15 15 16 15 14 13 13 13 14 13
19 19 20 21 21 21 23 24 23 24 25 26 26 27 28 28 28 26 25 25 25 25 24 23 22 21 21 20 19 18 18 18 17 17 16 17 16 16 16 15 15 15 15
20 21 21 21 22 22 22 23 25 25 26 25 25 27 27 28 28 28 27 27 27 26 25 24 23 23 22 21 19 19 19 19 18 17 17 17 18 18 18 17 17 17 17
21 20 20 21 22 22 23 24 25 26 26 26 27 28 28 28 29 28 28 29 28 27 26 25 24 23 23 22 21 20 20 20 19 19 18 19 19 18 18 19 19 19 18
21 21 20 20 21 22 22 24 25 25 25 25 26 26 26 27 27 28 28 27 27 28 27 26 25 25 23 22 21 21 21 21 21 20 20 20 20 20 20 20 20 20 19
21 21 21 21 21 22 22 23 24 24 24 25 26 27 26 27 27 27 28 26 25 25 26 26 25 25 24 22 22 22 22 22 21 22 22 21 21 21 21 21 20 20 20
21 22 22 22 23 22 22 22 23 24 24 25 26 26 26 27 27 26 25 25 24 23 24 24 25 25 24 23 23 23 22 22 22 23 23 22 22 22 22 22 21 22 22
21 21 21 21 22 23 23 24 24 24 25 25 25 25 25 25 25 25 25 24 24 24 24 23 23 23 24 23 23 23 23 23 23 24 24 24 24 24 24 23 23 23 23
20 20 21 21 22 23 24 24 25 25 25 25 25 25 25 25 24 24 24 24 24 24 23 23 22 23 23 23 24 24 24 24 24 24 25 25 25 25 26 25 24 24 25
20 20 21 22 23 24 24 25 25 24 25 24 23 23 23 23 23 23 23 23 23 23 23 23 23 23 22 23 24 24 24 24 24 24 25 26 26 26 26 26 26 25 25
21 21 22 23 24 24 25 25 24 24 23 22 22 22 22 22 22 22 23 23 23 23 23 22 23 23 23 23 24 25 25 24 24 24 25 26 26 27 27 27 27 26 26
22 22 22 23 23 24 24 23 23 22 21 21 21 22 22 22 22 23 22 22 23 23 23 23 24 24 24 23 24 25 25 25 25 25 26 26 27 27 27 27 27 27 27
22 22 22 22 23 23 23 22 21 21 21 20 21 21 21 21 21 21 22 22 23 23 23 24 24 24 25 24 24 24 25 25 25 25 25 26 27 27 27 28 28 28 28
22 22 23 23 23 23 22 22 21 21 21 21 21 21 20 21 21 22 22 23 23 23 24 25 25 25 25 25 25 25 25 25 25 25 25 26 27 27 28 28 28 29 28

GEFSSE_500_meanwind_132.txt.gz
Wind_Speed
3 3 3 3 3 4 4 4 5 5 6 6 7 7 7 7 7 7 7 6 6 5 5 4 3 2 2 2 1 1 1 1 1 1 0 0 0 1 1 2 2 3 3
6 5 4 5 5 5 6 6 6 7 7 8 8 9 9 9 9 9 8 8 7 7 6 5 5 4 3 3 3 2 2 2 2 2 1 1 1 1 1 2 2 3 3
7 6 6 7 7 7 7 8 8 8 9 10 10 10 11 11 11 10 10 9 9 8 7 7 6 6 5 4 4 4 3 3 3 3 2 2 1 1 1 1 1 2 2
9 8 8 8 8 9 9 10 10 10 10 11 12 12 12 12 12 12 12 11 11 10 9 9 8 7 7 6 5 4 4 4 4 4 3 3 2 2 2 1 1 0 1
10 9 9 9 9 10 11 11 12 12 12 13 13 13 14 14 14 14 13 13 12 12 11 11 10 9 8 7 6 5 5 5 5 4 4 3 3 3 3 2 1 1 1
10 9 9 10 10 11 12 12 13 13 14 14 15 15 15 15 15 15 15 15 14 14 13 12 11 10 9 8 7 7 6 6 6 5 4 4 4 4 3 3 2 2 2
11 10 10 11 11 12 13 13 14 15 16 16 16 16 16 16 17 17 17 17 16 15 15 14 13 12 11 10 9 8 7 7 7 6 6 5 5 5 5 4 3 3 3
11 11 11 12 13 14 15 15 16 16 17 17 18 18 17 17 18 18 18 19 18 17 16 16 15 14 13 12 11 10 9 8 8 7 7 6 6 6 5 5 5 4 4
12 12 13 13 14 15 15 16 17 18 18 19 19 19 19 19 19 19 20 20 20 19 18 17 16 15 15 14 13 12 11 10 9 8 8 8 7 7 7 6 6 6 5
13 13 14 14 15 16 17 17 18 19 19 20 20 20 20 20 20 20 21 21 21 21 20 19 19 17 17 16 15 13 12 11 11 10 10 10 9 8 8 8 7 7 7
14 14 15 15 16 17 18 19 20 20 21 21 21 22 22 22 22 22 22 22 22 22 22 21 20 19 18 17 16 15 14 13 13 12 12 11 10 10 9 9 9 9 9
14 15 15 16 17 18 19 20 20 20 21 22 23 23 23 23 24 24 24 23 24 24 24 23 22 22 20 19 18 17 16 15 14 14 13 12 11 11 11 11 11 11 11
14 15 16 17 18 18 20 21 21 20 21 22 23 24 25 25 25 25 25 24 24 25 25 24 24 23 22 20 19 18 17 16 15 15 15 14 13 13 13 13 13 13 13
15 16 17 17 18 19 20 20 20 21 21 22 23 24 24 25 26 26 26 26 26 25 25 25 25 24 23 22 20 19 19 18 17 16 16 15 14 15 15 14 14 14 14
16 17 18 19 19 20 21 22 21 22 22 23 24 25 26 25 25 26 26 27 26 26 26 25 25 25 24 24 23 22 21 19 18 18 17 16 16 16 15 15 15 15 15
16 17 18 19 20 21 21 22 22 23 23 23 23 24 26 25 25 26 26 26 27 26 26 26 26 25 24 24 24 23 22 21 20 20 19 18 18 17 16 16 16 17 17
16 17 18 19 21 21 21 22 22 23 22 22 23 23 23 24 25 26 27 27 27 26 25 26 26 27 26 25 24 24 23 22 21 20 20 20 19 18 18 17 17 17 17
17 18 20 20 21 22 23 23 23 23 22 22 23 23 22 22 23 23 24 25 25 25 25 25 25 25 25 24 23 24 24 22 21 21 21 21 20 20 19 19 18 18 18
18 19 20 20 21 22 23 23 24 23 23 23 23 22 22 23 23 24 25 24 24 23 23 23 23 23 24 23 22 23 23 23 22 23 22 21 21 20 20 20 19 19 20
18 19 19 20 20 21 22 23 23 23 23 22 22 22 23 23 24 25 24 24 24 23 23 23 23 23 23 22 22 22 23 23 23 22 22 21 21 20 20 20 20 20 21
18 18 18 19 19 20 21 22 22 22 22 22 22 22 22 23 23 23 24 24 23 24 23 23 22 22 22 21 21 22 23 22 23 24 23 23 22 22 21 21 21 22 21
19 19 19 19 20 21 21 22 23 24 24 24 23 23 23 22 22 23 23 23 23 23 22 22 21 20 20 20 20 21 22 22 22 23 23 23 23 23 23 22 23 23 22
19 19 20 21 21 21 22 22 23 24 24 24 24 24 24 23 22 22 21 21 21 21 21 21 20 20 20 20 20 20 21 21 21 21 21 22 22 22 22 22 22 22 22
19 20 20 21 21 21 21 22 22 23 23 23 23 23 21 21 21 21 21 21 21 20 20 20 20 21 21 21 21 21 21 22 22 22 22 22 22 22 22 23 23 22 22
19 20 21 21 22 22 22 23 23 22 23 23 22 21 21 21 20 20 21 20 20 21 20 20 20 21 21 21 21 22 22 21 22 22 22 22 22 22 23 23 23 23 22
20 20 21 22 23 23 23 23 23 23 23 22 21 21 21 21 21 20 20 20 20 21 21 21 22 22 22 22 22 22 22 22 21 22 22 23 23 23 22 23 23 23 23

GEFSSE_500_meanwind_138.txt.gz
Wind_Speed
5 5 6 6 6 6 5 4 4 3 3 3 4 4 5 6 6 7 7 8 8 9 9 9 9 8 7 7 7 7 7 7 7 6 6 6 5 5 4 3 2 1 1
7 7 7 8 7 7 6 6 6 5 5 5 5 5 6 6 7 7 8 8 8 9 9 9 9 9 8 8 8 7 7 7 7 7 6 6 5 5 4 2 2 1 1
8 8 9 9 8 7 7 7 7 7 7 6 7 7 7 7 8 8 9 9 9 9 9 9 9 9 9 9 8 8 7 7 7 7 6 5 5 4 4 3 2 2 1
9 9 10 10 9 9 9 8 8 8 8 8 9 9 9 9 9 10 10 10 10 10 10 10 10 10 10 9 9 8 7 7 7 7 6 5 5 5 4 3 3 2 2
11 11 11 10 10 9 9 9 9 10 10 10 10 10 11 11 11 11 11 11 11 11 11 11 11 10 10 10 9 9 8 8 7 7 7 6 5 5 5 4 3 3 2
13 12 12 11 11 10 10 10 10 11 11 11 12 12 12 12 12 13 13 13 13 13 13 12 12 11 10 10 10 10 9 8 8 8 7 7 6 6 5 4 4 3 3
14 13 13 12 11 11 11 11 11 12 12 13 13 13 13 13 14 14 14 14 14 14 14 14 13 12 12 11 11 11 10 9 9 8 8 8 7 7 6 5 4 4 3
14 14 14 13 12 12 12 12 13 13 14 14 15 15 15 15 15 15 15 16 16 16 16 15 14 14 13 12 12 12 11 10 10 9 8 8 8 7 6 5 5 5 4
15 15 14 13 13 13 13 13 14 14 15 15 16 16 16 16 16 16 17 17 18 18 18 17 16 16 15 14 13 13 13 12 11 10 10 9 9 9 8 7 7 6 6
15 14 14 14 14 14 14 14 15 16 16 16 17 17 18 18 18 18 19 19 20 20 19 19 18 17 17 16 15 14 14 14 13 12 11 11 11 10 10 9 9 8 8
16 16 15 14 15 15 15 16 16 16 17 17 18 18 19 20 20 20 20 20 21 21 21 20 20 20 19 19 17 16 16 15 15 14 13 13 13 12 12 11 10 10 9
16 16 16 15 15 16 16 17 17 17 17 18 18 19 20 20 20 21 21 21 21 22 22 22 22 21 21 21 19 18 17 17 16 16 15 15 14 14 13 12 12 11 11
17 16 16 16 16 17 17 18 18 18 18 18 19 20 20 19 20 21 22 22 22 22 23 23 23 23 22 22 21 20 19 19 18 17 17 17 16 16 15 15 14 13 12
17 17 17 18 18 18 18 18 18 19 19 19 20 20 21 21 21 22 23 23 24 24 24 24 23 24 23 22 22 21 21 21 20 20 19 18 18 18 17 16 15 15 14
17 18 18 18 18 18 18 18 18 19 19 19 20 21 21 21 22 23 24 24 25 25 26 26 25 25 25 24 23 22 22 22 23 22 21 20 20 19 18 18 17 16 16
17 18 19 19 19 19 19 19 20 20 20 21 21 22 22 22 23 23 24 25 26 26 26 27 26 27 27 26 26 25 24 23 23 23 23 21 20 20 19 19 18 18 17
19 19 20 20 19 18 19 19 20 21 21 21 21 22 23 23 23 23 24 25 25 26 26 27 27 27 28 27 27 26 26 25 24 24 24 23 22 21 21 20 20 19 19
21 20 21 20 20 20 20 20 20 21 21 21 22 23 23 24 24 25 25 25 26 26 26 27 27 26 27 27 27 26 26 27 26 25 25 25 23 22 22 22 21 21 20
21 20 20 20 21 21 21 20 20 21 21 22 22 23 24 24 26 26 26 26 26 26 26 26 26 26 27 28 27 27 26 26 26 25 26 26 24 24 24 23 22 21 21
22 22 21 20 20 21 21 20 20 21 21 22 23 24 25 25 25 25 25 25 26 25 25 25 25 26 27 27 26 26 26 26 26 26 26 26 26 25 25 24 23 23 22
23 22 22 21 21 21 21 21 21 22 23 23 24 25 25 25 25 26 25 25 25 25 26 26 26 26 26 26 26 26 26 26 26 26 26 26 25 25 25 25 24 24 23
23 23 21 22 21 21 21 22 23 23 24 24 24 24 24 25 25 25 25 25 25 25 25 24 25 25 26 25 26 26 26 27 27 26 26 25 26 26 26 25 25 24 24
24 24 22 22 22 22 22 22 23 24 24 24 25 26 26 26 25 25 25 25 25 24 24 25 25 25 25 26 26 26 27 28 28 27 26 26 26 26 26 25 24 24 24
24 24 23 23 24 24 23 24 24 24 25 26 26 27 27 26 26 25 24 24 24 25 25 26 25 26 26 26 26 27 27 27 27 26 26 26 25 25 25 24 24 24 24
24 23 23 24 25 25 25 25 25 26 26 26 27 27 28 27 27 26 25 25 25 25 25 26 26 27 27 27 27 27 27 28 28 27 26 26 26 26 25 24 24 24 25
24 25 26 26 26 26 25 25 26 27 27 27 27 28 28 27 27 27 26 26 26 26 25 25 25 26 27 27 27 27 27 27 27 27 26 27 27 26 26 26 25 25 26

GEFSSE_500_meanwind_144.txt.gz
Wind_Speed
1 1 1 2 2 3 4 5 5 5 4 4 3 2 2 1 1 2 2 3 4 4 5 6 6 6 5 5 5 5 6 6 5 5 5 4 4 4 3 2 2 2 2
2 2 3 3 4 5 6 6 6 6 6 5 5 4 4 3 3 2 3 3 3 4 5 5 5 5 5 5 5 5 5 5 5 5 5 4 4 4 3 3 2 2 2
4 4 4 5 6 7 7 8 8 8 7 7 7 6 6 5 4 4 4 4 4 4 5 5 5 5 5 5 5 5 5 5 5 5 5 4 4 4 3 3 3 2 3
6 6 6 6 7 8 8 9 9 9 8 8 8 7 7 6 6 6 5 5 5 5 5 5 5 5 6 6 5 5 5 5 5 5 5 5 4 4 4 4 4 3 3
6 7 7 8 9 9 9 9 9 9 9 8 8 8 7 7 7 7 7 6 6 6 6 7 7 6 7 6 6 6 6 6 6 5 5 5 5 5 5 4 4 4 4
8 9 9 10 11 11 11 10 10 10 10 10 9 9 8 8 8 8 8 8 8 8 8 8 8 8 8 8 8 7 7 7 7 6 6 6 6 6 5 5 5 5 5
10 11 12 12 12 12 12 11 11 12 11 11 11 10 10 10 10 10 10 9 9 9 9 10 10 9 9 9 9 9 9 9 8 8 8 7 7 7 7 7 6 6 6
12 12 13 13 13 13 13 13 13 13 13 12 12 12 12 12 12 12 12 11 11 11 11 11 11 12 11 11 11 11 10 10 10 10 10 9 9 9 8 8 8 7 7
12 13 13 14 14 15 15 15 14 14 14 14 14 14 13 13 13 14 13 13 13 13 13 13 13 14 13 13 13 13 12 12 12 12 11 11 11 11 10 10 9 9 8
13 13 14 15 16 16 16 16 16 16 16 16 16 16 15 15 15 15 15 15 15 15 15 15 15 15 15 15 15 15 15 15 14 14 14 13 13 13 13 12 11 11 10
14 15 16 17 17 17 18 17 17 17 17 18 17 16 16 16 17 16 17 17 17 17 17 17 16 16 17 17 16 16 16 16 16 16 16 15 15 15 15 14 13 13 12
16 16 17 18 19 19 18 18 18 18 18 18 18 17 17 17 18 18 19 19 18 18 18 18 18 18 18 18 18 18 18 18 18 18 17 17 17 17 16 16 16 15 14
17 17 18 19 20 20 20 19 19 19 19 19 19 19 19 19 19 19 19 19 20 20 20 20 20 19 19 20 20 20 20 20 20 20 19 19 19 19 18 18 18 17 16
18 18 19 20 21 21 21 21 20 20 19 19 20 20 20 20 20 20 19 20 21 21 22 21 21 21 21 21 22 22 22 21 21 21 21 20 21 21 20 20 19 19 17
19 19 20 21 21 21 22 22 21 21 21 21 21 21 21 22 21 21 21 22 22 22 22 22 22 23 23 23 23 23 24 24 23 22 22 21 22 22 22 21 21 20 19
21 21 21 22 22 21 22 22 22 22 22 21 21 22 22 23 22 22 23 23 23 23 23 23 23 23 23 25 24 24 25 25 25 25 24 24 24 24 24 23 22 22 21
22 21 22 22 23 23 23 23 23 23 23 23 23 23 23 23 23 24 24 23 23 24 24 24 25 25 25 26 26 26 27 27 27 27 26 25 25 25 26 25 23 22 22
22 22 23 23 23 23 23 23 24 24 24 24 23 23 23 24 24 25 25 24 25 25 25 26 27 28 27 27 27 27 28 28 29 28 27 26 26 25 26 26 25 24 23
24 23 23 23 24 24 24 24 24 24 25 25 25 24 24 24 25 25 26 25 26 26 26 27 27 27 28 28 27 27 28 28 29 29 28 27 26 26 26 26 26 25 25
25 24 24 24 25 25 25 26 25 25 26 26 25 25 25 26 26 26 27 27 27 27 27 27 27 28 27 28 28 28 28 29 29 29 28 28 27 27 27 27 27 27 26
25 25 25 26 26 26 27 27 26 26 26 26 26 26 26 27 27 28 28 28 28 28 28 27 28 29 28 28 28 29 29 29 28 29 29 29 28 28 28 28 27 27 27
25 25 25 26 27 27 28 27 26 26 26 27 27 26 26 28 29 29 28 29 29 30 30 29 29 29 29 29 29 28 29 29 29 29 30 30 30 29 29 28 28 28 28
26 26 27 27 28 29 28 28 27 27 27 27 27 27 27 28 29 29 29 30 30 30 31 31 30 30 30 29 29 29 29 28 29 30 30 30 31 30 29 29 28 27 27
27 27 28 28 28 29 29 29 28 28 28 28 28 28 29 30 31 31 31 31 30 31 31 30 31 31 30 29 29 29 30 30 30 30 29 30 31 30 30 29 28 28 27
26 27 28 28 28 28 29 29 30 29 29 28 28 28 29 30 31 31 31 31 32 31 31 31 31 31 30 30 30 29 30 31 31 31 30 30 30 30 29 29 29 28 28
26 27 27 28 28 28 28 28 28 28 28 28 28 29 30 30 30 30 30 30 31 31 31 31 31 31 30 30 30 31 30 30 31 31 31 30 30 29 29 28 28 28 27

GEFSSE_500_meanwind_150.txt.gz
Wind_Speed
4 5 5 5 6 6 6 6 7 7 8 8 8 8 9 9 9 8 7 7 6 6 5 5 4 4 4 4 5 5 5 5 5 4 4 4 3 3 3 3 2 2 2
6 6 6 7 8 8 8 8 9 9 9 10 10 10 10 10 10 9 9 8 7 7 6 6 5 5 5 5 5 5 5 6 5 5 4 4 3 3 3 3 2 2 2
7 8 8 9 9 9 10 10 10 10 11 11 11 11 11 11 11 11 10 9 9 8 7 7 6 6 6 6 6 6 6 6 6 6 5 4 4 4 3 3 3 3 3
9 9 10 10 11 11 11 11 11 11 11 12 12 12 12 12 11 11 11 11 10 9 9 8 7 7 7 7 7 7 7 7 7 6 6 5 5 4 4 4 4 4 4
11 11 11 11 12 12 13 13 12 12 12 13 13 13 13 12 12 12 12 11 11 11 10 10 9 9 9 8 8 9 8 8 8 7 6 6 6 5 5 5 5 5 5
12 13 13 13 13 14 14 14 14 14 13 13 13 13 14 13 13 13 13 13 12 12 12 12 11 11 11 11 10 10 10 10 9 9 8 8 7 7 6 6 7 7 7
14 14 14 14 15 15 15 15 15 15 15 14 14 14 14 14 14 14 13 13 13 13 13 13 13 13 13 13 13 12 12 12 11 10 10 9 9 9 8 8 8 8 8
15 16 16 16 16 16 16 16 17 16 16 16 16 15 15 15 14 14 14 14 14 15 15 15 15 15 15 15 15 14 14 14 13 13 12 12 11 11 10 10 10 10 9
16 17 16 17 17 17 18 18 18 18 18 17 17 17 16 16 15 15 15 16 16 16 17 17 17 16 17 17 17 16 16 16 15 14 13 12 13 13 13 12 11 11 11
17 17 17 17 18 18 18 18 19 19 19 18 18 18 17 17 16 16 16 17 17 17 18 19 18 18 18 18 18 18 18 18 17 16 15 14 15 15 14 14 13 13 12
18 18 18 19 19 19 19 20 20 20 20 20 19 19 18 18 18 17 18 18 18 19 19 20 20 19 19 20 20 20 20 20 19 18 17 17 17 16 16 16 16 15 14
20 20 20 20 20 20 20 21 21 21 21 21 20 20 19 19 19 19 19 19 20 20 20 20 21 21 21 21 21 21 21 21 21 20 19 19 19 18 18 17 17 17 16
21 21 21 21 21 21 21 21 22 23 22 22 22 21 20 20 20 20 20 20 21 21 21 21 22 22 22 22 22 22 23 22 22 22 21 21 21 20 20 19 18 18 18
22 22 22 22 22 22 22 23 24 24 23 21 21 22 22 21 22 22 21 22 21 21 21 22 22 23 23 22 23 24 24 23 23 24 22 22 22 22 21 20 20 20 20
23 23 23 24 24 25 25 25 25 24 23 23 23 23 23 23 23 23 23 24 23 22 22 22 23 22 23 24 24 23 24 25 26 25 24 24 24 23 22 22 21 21 21
23 24 24 25 26 26 26 25 25 24 23 23 23 23 24 24 25 25 25 24 24 24 23 23 24 24 25 25 25 25 24 24 25 26 26 25 26 25 24 23 23 23 23
23 24 24 25 26 26 26 25 26 25 24 24 24 23 24 26 26 26 25 25 25 24 24 24 25 25 26 25 25 25 25 25 25 26 26 26 26 26 26 25 25 24 24
24 24 26 26 26 26 26 26 26 26 25 25 26 25 25 26 27 27 26 26 25 25 26 26 26 26 26 26 26 26 27 26 26 27 27 27 27 27 27 26 25 24 24
25 25 26 26 26 27 27 28 27 27 27 27 27 26 26 27 28 28 27 27 27 27 27 28 28 28 28 28 27 27 27 26 26 27 27 27 27 27 27 26 26 25 25
25 25 25 26 26 27 27 27 27 28 28 28 28 28 28 28 29 30 29 28 28 28 28 29 29 28 29 29 28 28 27 27 27 26 27 27 27 28 28 27 27 27 26
26 26 27 27 27 27 28 27 28 28 29 29 29 30 29 29 30 30 30 30 30 30 30 30 30 30 30 30 30 29 28 29 28 28 28 28 28 28 28 28 27 27 27
26 27 26 27 28 28 29 29 29 29 29 29 29 30 30 31 31 31 31 31 32 31 30 30 31 32 31 31 31 30 30 30 29 28 27 27 27 28 28 28 27 28 28
28 28 28 29 29 30 30 30 31 31 31 31 30 31 31 31 31 31 31 31 31 31 31 31 32 33 32 32 31 31 31 30 29 29 28 27 27 27 28 28 29 28 29
29 29 29 30 30 30 31 31 32 32 32 32 31 30 30 30 30 31 31 31 32 32 31 32 32 33 33 33 32 32 31 30 30 30 29 29 28 28 28 28 28 28 28
29 28 29 29 30 31 31 31 32 32 32 31 31 31 31 30 31 31 30 31 31 32 32 32 32 32 33 33 32 32 32 32 31 31 30 30 30 29 28 29 28 29 29
28 28 29 29 30 31 32 32 32 32 32 32 32 31 31 31 30 30 31 31 31 31 31 31 31 32 33 33 32 32 32 33 32 32 32 31 30 29 28 28 29 29 29

GEFSSE_500_meanwind_156.txt.gz
Wind_Speed
4 4 4 4 4 5 6 7 8 8 9 10 11 11 12 12 13 13 13 13 12 12 12 11 10 9 9 8 8 8 8 7 6 6 6 6 5 5 4 4 3 2 3
5 5 6 6 6 7 7 8 9 10 10 11 11 12 12 13 13 14 14 14 13 13 13 12 11 11 10 10 9 9 8 8 8 7 7 6 6 5 5 4 3 3 3
6 6 7 8 8 8 9 9 10 10 11 11 12 12 13 13 14 14 14 14 14 14 13 13 12 12 11 11 10 10 10 9 9 8 8 7 7 6 6 5 4 4 3
8 8 8 9 9 9 10 11 11 11 12 12 12 12 13 13 14 14 14 14 14 14 13 13 13 13 12 12 12 11 11 10 10 9 8 8 8 7 6 6 5 5 5
10 10 10 10 11 11 11 12 12 13 13 13 13 13 13 14 14 15 15 15 14 14 14 14 14 14 13 13 13 12 12 11 11 10 9 9 8 7 7 7 6 6 6
12 12 12 12 12 12 13 13 13 14 14 14 14 14 15 15 15 16 16 15 15 15 15 15 15 15 15 14 14 13 13 12 12 12 11 11 10 9 9 8 8 8 7
12 13 13 13 13 13 14 14 15 15 15 15 15 16 16 16 16 17 17 16 16 16 16 16 16 16 16 16 15 15 14 14 14 14 13 12 12 11 10 9 9 9 9
12 13 14 14 14 15 15 16 16 15 15 16 16 16 16 16 17 17 17 17 16 16 16 17 17 17 17 17 17 16 16 15 15 15 14 14 14 13 12 11 10 10 9
13 14 14 14 15 16 16 17 16 16 16 17 17 17 17 18 18 18 18 17 17 17 17 18 18 18 19 18 18 18 17 17 17 16 16 16 15 15 14 12 11 11 11
15 15 16 16 16 17 17 17 17 17 18 18 18 18 18 19 19 19 18 19 18 18 18 18 18 19 20 20 19 19 19 19 19 18 17 17 17 15 15 14 13 13 13
16 16 17 17 17 18 18 18 18 17 18 19 19 19 19 20 20 20 19 20 19 19 19 20 20 20 20 20 20 20 20 20 19 19 18 18 18 18 17 16 15 15 14
16 17 18 18 19 19 19 19 19 19 19 20 19 20 21 21 20 20 20 19 19 20 20 20 21 21 21 21 21 21 21 21 21 21 21 20 20 19 17 17 17 16 16
17 18 19 19 19 20 20 19 19 20 21 21 21 22 22 22 21 21 20 20 20 21 21 21 21 21 21 21 22 22 21 21 22 22 23 22 21 21 19 17 17 17 16
19 19 19 20 21 20 21 20 21 21 22 23 23 23 22 22 22 22 22 22 21 21 21 22 22 22 22 21 22 21 21 22 22 22 24 23 23 22 20 19 18 19 19
19 20 20 21 22 22 21 21 22 22 22 22 22 22 22 23 23 23 23 23 23 23 23 22 23 23 23 23 23 23 22 23 22 23 24 23 23 23 23 21 21 21 20
20 20 21 22 22 22 22 22 21 21 22 22 22 22 22 23 24 24 24 25 24 24 23 23 23 23 23 23 23 23 23 23 23 23 23 24 24 24 24 24 23 22 22
21 21 22 22 22 22 22 23 22 21 21 22 22 23 23 24 24 24 24 25 25 24 24 24 24 24 24 24 24 24 24 24 24 24 24 24 24 25 25 25 24 25 25
22 22 21 21 23 23 23 23 24 23 22 22 23 24 25 26 26 26 25 25 25 25 25 25 26 26 26 26 26 25 25 26 26 25 25 26 26 26 26 26 26 26 26
21 22 22 23 23 24 24 23 24 24 24 24 25 26 26 26 26 26 25 25 25 25 25 26 27 27 28 27 27 27 27 27 27 27 27 26 26 27 27 27 27 27 26
22 22 23 24 23 23 23 24 25 26 26 25 25 26 27 27 28 28 26 26 26 26 27 27 28 28 29 28 28 28 29 29 29 28 29 28 27 27 28 28 28 28 28
23 23 24 24 24 24 24 25 26 27 26 26 26 27 28 28 27 28 28 28 28 28 29 29 29 28 29 29 28 29 30 30 30 30 30 30 29 28 28 28 28 29 29
24 25 25 25 26 26 26 26 27 28 27 28 28 29 29 29 29 30 29 28 28 29 29 30 30 29 29 29 29 29 29 30 30 30 30 30 30 29 29 28 28 29 29
24 25 25 25 26 26 26 27 27 28 28 29 29 30 30 30 30 29 29 29 29 30 29 28 28 28 29 29 29 30 29 29 30 30 30 30 30 30 30 30 29 30 30
24 25 25 26 26 27 27 27 28 28 29 29 30 31 31 31 31 30 30 30 30 29 29 29 29 29 28 29 29 30 30 30 30 30 30 30 30 30 30 31 31 31 31
26 25 25 26 26 27 27 28 28 28 29 30 31 31 31 31 31 30 30 30 30 29 29 29 29 30 29 29 30 31 30 30 30 30 30 30 31 31 32 32 31 31 32
24 25 26 26 26 26 27 27 28 29 29 30 30 30 30 30 30 29 29 29 29 30 29 28 29 29 29 29 29 30 30 30 30 31 31 31 31 31 32 32 31 31 32

GEFSSE_500_meanwind_162.txt.gz
Wind_Speed
6 7 7 8 9 9 9 9 9 9 9 9 9 10 10 10 11 11 12 12 13 12 13 12 12 11 11 11 11 10 10 10 10 9 9 8 8 7 7 6 5 5 5
7 7 8 10 10 10 10 10 10 10 10 10 10 11 11 11 11 12 12 13 13 13 13 13 12 12 12 11 11 11 10 10 10 10 9 9 8 8 7 7 6 6 6
9 9 10 11 11 11 10 10 11 11 11 11 11 11 12 12 12 13 13 13 13 13 13 13 13 12 12 12 12 11 11 11 11 10 10 9 9 9 8 8 7 6 6
10 11 12 12 12 12 12 11 11 12 12 12 13 13 13 13 14 14 14 14 14 14 14 14 13 13 13 13 12 12 12 12 11 10 10 10 10 9 9 8 8 7 6
11 12 13 13 13 13 12 12 12 13 13 13 14 14 14 14 15 15 15 16 15 15 15 15 15 14 14 14 13 13 13 13 12 11 11 11 10 10 9 9 8 7 7
13 14 14 14 14 14 13 13 13 13 13 14 15 15 15 15 16 16 16 17 17 16 16 16 16 16 15 15 15 14 14 14 13 13 12 12 12 11 11 10 9 8 8
14 14 16 16 15 15 14 14 14 14 14 15 15 16 16 16 17 17 18 18 18 17 17 17 17 17 17 16 16 16 16 15 15 15 14 13 13 12 13 12 11 10 10
15 16 16 16 15 14 14 14 15 15 15 16 16 16 17 17 18 18 19 19 19 19 19 19 19 19 18 18 18 17 17 17 17 16 16 15 14 14 14 14 13 12 11
16 16 17 16 16 15 15 16 16 17 17 17 17 17 17 18 18 19 19 19 19 20 20 20 20 20 20 19 19 19 19 18 18 18 17 17 16 15 15 14 14 13 13
17 17 17 17 17 17 17 17 18 18 18 18 18 18 18 19 19 19 20 20 20 20 20 21 21 21 21 20 20 21 21 20 19 19 18 18 17 17 16 16 15 15 15
18 17 18 18 18 18 18 19 20 20 20 20 20 19 20 20 20 20 21 21 21 21 21 22 22 22 22 22 21 21 21 21 21 21 20 20 19 19 19 18 17 17 16
18 18 19 19 19 19 19 20 20 21 21 21 21 21 21 21 22 22 22 22 22 23 23 23 23 23 23 23 23 22 22 22 21 22 22 21 21 21 21 20 20 19 18
19 19 20 20 20 20 20 21 21 22 22 23 23 23 23 23 23 23 23 23 23 24 24 24 24 24 25 25 24 24 23 23 22 22 23 23 22 22 22 22 21 21 20
19 19 20 20 21 21 20 21 21 22 23 23 23 23 23 24 24 24 23 24 24 25 26 26 26 26 27 27 26 26 24 23 23 22 22 23 23 23 23 23 23 21 21
20 20 21 21 21 22 21 21 22 23 23 23 23 24 24 24 24 25 25 25 26 27 27 27 27 27 28 28 27 27 26 25 24 24 24 24 24 24 23 23 22 22 23
19 18 20 21 21 22 22 22 23 24 24 24 24 24 25 25 25 25 27 27 27 28 28 29 29 28 28 28 27 27 27 27 26 26 26 26 26 25 24 24 24 24 25
19 19 21 22 22 22 23 23 24 24 24 24 24 25 25 26 26 26 26 27 28 28 28 28 29 29 29 28 28 28 28 28 28 27 27 27 27 27 26 27 27 26 26
20 20 21 22 23 24 24 24 25 25 25 25 25 26 26 26 27 27 27 27 28 28 28 28 28 29 30 28 27 28 29 29 29 30 30 29 29 29 29 28 28 28 27
21 21 21 22 22 24 24 24 25 25 25 26 25 26 26 27 28 28 29 29 29 29 29 29 28 29 29 29 29 29 30 30 30 30 31 31 31 31 30 30 29 30 29
21 21 21 22 23 23 23 24 25 25 25 26 26 26 27 29 30 30 30 30 30 30 30 30 30 30 30 31 31 31 31 32 32 31 31 32 33 32 32 32 31 31 31
20 20 21 22 24 24 24 25 25 26 26 27 28 28 29 30 30 30 30 30 31 30 31 31 31 31 31 31 32 32 32 33 33 32 32 32 33 33 34 34 33 33 33
21 21 22 23 23 24 25 26 25 26 27 28 29 30 31 31 30 31 31 32 32 32 32 33 33 32 32 32 32 33 33 34 34 33 33 33 33 34 34 35 35 34 34
21 21 23 23 24 25 26 26 27 27 28 29 30 30 31 31 31 31 32 32 32 32 32 32 33 33 33 32 32 33 33 32 33 33 33 33 33 34 34 35 35 35 34
21 22 23 24 25 27 27 26 27 28 29 29 30 30 30 31 32 32 32 32 32 32 32 32 32 32 32 32 32 32 32 32 32 32 33 33 34 35 35 35 35 35 35
23 23 24 25 26 27 27 26 27 29 29 29 29 29 29 30 30 31 31 32 32 31 31 31 31 31 31 32 32 32 32 32 32 33 33 33 34 34 34 35 35 35 35
23 24 24 26 26 27 26 26 27 28 28 29 29 29 29 29 29 29 30 30 30 30 29 29 29 30 30 29 30 31 31 32 32 33 32 32 32 33 33 34 35 35 36

GEFSSE_500_meanwind_168.txt.gz
Wind_Speed
3 4 5 5 6 7 8 8 8 8 8 8 8 7 7 7 7 7 7 7 7 7 7 8 7 7 7 7 7 7 7 7 7 7 7 7 7 7 7 7 7 7 7
4 5 5 6 7 8 9 9 10 9 9 9 9 9 8 8 8 9 8 8 8 8 8 8 8 8 8 8 8 8 8 8 8 8 8 8 8 8 8 8 8 7 7
6 6 7 8 9 10 10 11 11 11 10 10 9 9 10 10 10 10 9 9 9 9 9 9 9 9 9 10 9 9 9 9 9 9 8 8 9 9 8 8 8 8 8
8 9 9 10 10 11 12 12 12 12 11 11 11 10 11 11 11 11 10 10 11 11 10 10 10 10 10 11 11 11 11 10 10 10 10 9 10 10 9 10 9 9 9
9 10 11 11 12 13 14 14 13 13 13 12 12 12 12 12 12 12 12 12 12 12 12 12 12 12 12 12 12 12 12 12 12 12 11 11 11 11 11 10 10 10 10
11 11 12 12 13 14 15 15 14 14 14 13 13 13 13 14 13 13 13 13 13 13 13 13 14 14 13 13 13 13 13 13 13 13 13 13 13 12 12 12 11 11 11
12 13 13 14 15 15 16 16 15 15 15 15 15 15 15 15 15 15 15 15 15 14 14 14 15 15 15 15 15 15 14 14 15 15 15 15 14 14 14 13 13 13 13
13 14 14 15 15 16 17 17 17 16 16 16 16 16 17 17 17 17 16 16 16 16 15 16 16 16 16 16 16 16 16 16 17 16 16 16 16 16 15 15 14 14 14
15 15 15 15 16 17 18 18 18 18 18 18 18 18 18 18 18 18 18 18 18 18 17 17 17 17 17 17 17 17 18 18 17 18 18 17 17 17 17 16 16 16 16
16 16 16 16 17 18 19 19 20 20 20 20 20 20 20 20 20 20 20 19 19 19 19 19 19 19 19 18 18 18 18 19 19 18 19 19 19 19 19 18 18 17 17
17 18 19 18 19 20 20 20 21 21 21 21 21 21 22 22 22 21 21 21 21 21 21 21 21 20 20 20 21 20 19 21 21 20 20 20 21 21 21 21 20 19 19
18 19 20 20 21 21 21 22 22 22 22 22 22 23 23 24 24 23 22 23 23 23 22 22 22 22 22 22 22 22 22 22 22 22 22 22 22 22 22 22 21 21 20
20 21 21 22 23 23 23 23 23 23 23 24 24 25 24 24 24 24 23 23 24 24 23 23 23 24 25 24 23 23 23 23 23 24 23 22 22 22 23 23 23 22 22
22 22 23 23 24 24 24 24 24 25 25 25 25 25 25 25 24 24 24 25 25 25 25 25 24 25 25 26 25 25 24 24 25 25 25 24 24 24 24 24 24 24 23
22 23 23 23 24 24 25 25 25 26 26 26 26 26 26 25 25 26 26 26 27 27 27 27 26 26 26 26 26 26 26 26 26 26 27 26 26 26 25 25 25 26 25
23 23 24 25 25 25 26 26 26 27 27 27 27 27 27 27 27 27 27 27 28 28 28 28 28 28 27 27 28 27 27 26 27 27 28 28 28 28 28 27 27 27 28
24 24 25 25 25 26 26 25 25 26 26 27 27 27 28 28 28 28 28 29 28 28 28 29 29 29 29 29 29 28 27 27 27 28 28 29 29 30 30 30 29 29 29
24 25 25 26 26 26 25 25 25 26 27 27 27 28 28 28 28 28 29 29 29 28 29 30 30 30 29 30 30 29 29 28 28 29 29 30 30 31 31 31 31 31 30
24 25 25 25 26 25 25 25 25 26 28 28 29 30 29 29 29 29 30 30 30 30 30 31 31 30 30 31 31 31 31 30 31 31 31 31 32 33 33 33 32 33 32
24 25 25 25 25 25 25 25 26 27 28 29 30 31 32 31 30 30 30 31 31 31 31 31 31 31 31 31 32 32 32 32 32 32 31 32 32 33 34 33 33 34 34
24 24 24 25 26 25 25 26 26 27 28 29 30 30 30 30 30 30 31 32 32 32 32 31 32 32 32 32 33 33 33 34 33 32 33 33 33 33 34 34 35 35 36
23 24 25 25 26 25 26 26 26 27 27 28 29 30 30 29 29 30 31 32 32 32 32 32 32 33 33 33 33 33 33 34 33 33 33 33 33 33 34 35 35 36 37
22 23 24 25 25 26 26 26 27 27 28 28 29 30 30 30 30 30 30 31 32 32 31 31 31 32 33 33 33 34 34 34 32 33 33 33 33 34 35 36 36 36 36
23 24 24 25 25 26 27 27 27 28 29 29 29 29 30 30 29 29 29 30 30 30 31 32 32 33 33 32 33 33 33 33 33 32 33 33 34 34 35 36 36 36 36
23 24 25 26 26 26 27 28 28 28 29 30 30 29 29 29 29 29 29 29 29 30 31 32 32 32 32 31 32 32 32 33 33 33 33 33 34 35 35 35 35 35 36
23 24 25 25 26 26 27 27 27 28 29 29 29 28 28 28 28 28 28 29 30 31 31 31 31 31 31 31 31 31 31 31 31 32 33 33 33 34 35 35 34 34 34

GEFSSE_500_meanwind_174.txt.gz
Wind_Speed
5 6 6 6 7 7 8 8 9 10 9 9 9 10 10 10 9 9 9 9 9 9 9 9 9 9 9 9 9 9 9 9 9 8 8 8 8 8 8 8 8 8 8
7 7 7 8 8 9 10 10 10 11 11 11 11 11 11 11 11 11 11 11 11 10 10 10 10 10 10 10 10 10 10 10 10 10 9 9 9 9 9 9 9 9 9
9 9 9 9 10 11 11 12 12 12 12 12 13 13 13 12 12 12 12 12 12 12 12 11 11 11 11 11 11 11 11 11 11 11 11 11 11 10 10 10 9 10 10
10 11 11 11 12 12 13 13 13 13 14 14 14 14 14 14 14 14 13 13 13 13 13 12 12 12 12 12 12 12 12 12 12 12 12 12 12 12 11 10 10 10 10
11 12 12 12 13 13 14 14 14 15 15 16 16 16 15 15 16 15 15 15 14 14 14 14 14 14 14 14 13 13 14 14 14 14 13 13 13 13 13 12 11 11 11
13 13 13 14 14 14 15 15 16 17 17 17 17 17 17 17 17 17 16 16 16 16 16 15 15 15 15 15 15 15 15 15 15 15 14 14 14 14 14 14 13 12 12
15 15 15 15 15 15 16 16 17 18 18 18 18 18 18 18 19 19 18 18 18 18 18 17 17 17 17 16 16 16 16 17 17 16 15 15 15 15 15 15 15 14 14
16 16 16 16 16 17 17 18 19 19 18 19 19 19 20 20 20 21 20 20 19 19 19 19 18 18 18 18 17 17 17 18 18 17 17 16 16 17 17 16 16 16 15
18 17 17 18 18 18 19 20 20 21 20 20 20 21 21 20 21 21 21 21 21 20 20 20 20 20 20 20 19 18 19 19 20 19 18 18 18 17 17 17 17 17 16
19 19 19 19 20 20 21 21 22 22 22 22 22 22 22 22 22 22 22 22 22 21 21 21 21 21 21 21 20 20 20 20 20 21 19 19 19 19 18 18 18 19 19
20 20 20 21 21 22 22 23 23 23 23 24 24 24 23 23 22 23 23 23 23 23 22 23 22 22 22 21 21 22 22 22 21 21 21 20 20 20 19 20 19 19 20
21 21 21 21 22 23 23 24 24 24 25 25 25 25 25 24 24 24 24 25 24 24 23 23 23 23 23 22 22 23 23 23 23 23 22 22 22 21 21 21 21 21 21
22 22 22 22 23 24 25 26 26 27 27 26 27 27 26 25 25 26 26 26 26 25 24 24 24 24 24 23 23 23 24 23 24 24 24 23 24 24 23 23 22 21 21
23 24 23 23 24 25 26 26 27 27 28 28 27 28 28 27 28 28 27 27 27 25 25 25 24 24 24 24 24 24 24 25 25 25 25 25 25 25 25 24 24 23 23
23 23 23 23 24 26 27 27 28 29 29 29 28 28 28 28 28 27 27 27 27 27 26 26 26 25 25 25 25 25 25 24 25 25 26 26 26 27 25 26 26 26 26
24 25 25 26 26 26 27 28 28 28 28 28 28 28 28 28 28 27 27 27 28 27 27 28 27 26 26 26 27 26 26 26 26 28 28 28 28 28 27 27 27 28 28
26 26 26 27 27 27 27 28 28 28 28 28 28 28 28 29 29 29 29 29 29 29 29 29 28 27 27 27 27 27 28 27 27 28 28 29 29 29 28 28 28 29 29
26 26 27 27 27 27 28 29 28 28 29 28 28 28 29 30 31 31 30 30 30 30 30 30 29 29 28 27 27 28 28 28 28 28 29 29 29 30 30 30 30 30 30
27 27 27 27 27 28 28 29 28 28 29 29 29 29 31 31 31 31 30 31 30 30 30 30 29 29 28 28 28 29 29 29 29 29 29 30 31 31 31 31 32 32 31
27 27 26 27 27 28 28 28 28 28 29 29 29 30 31 31 31 30 29 30 30 30 29 29 29 29 29 28 29 29 29 29 29 29 30 31 31 32 32 31 31 31 32
26 26 27 27 27 28 28 29 29 29 29 29 29 29 30 30 30 30 30 30 30 29 29 29 29 29 28 29 29 30 30 30 30 31 31 31 31 32 33 33 32 32 32
26 26 27 27 28 29 29 29 30 29 29 29 29 29 30 30 30 30 30 30 30 29 29 28 28 29 28 29 30 30 30 29 30 30 31 31 32 32 32 32 32 32 32
25 25 26 27 28 27 28 28 29 29 29 30 29 29 29 29 30 30 30 30 30 29 29 29 29 29 29 30 30 30 30 29 30 30 30 30 30 31 31 31 31 31 32
24 24 26 27 27 26 27 27 28 28 29 29 29 28 28 29 30 30 30 30 30 30 29 29 29 30 30 30 30 31 31 31 31 30 30 30 30 30 30 31 31 31 31
23 24 25 25 26 26 27 27 27 28 28 28 28 28 29 30 30 30 30 29 29 30 29 29 29 29 29 29 29 30 30 31 31 30 29 29 30 30 30 31 30 31 32
24 24 24 24 25 25 25 26 26 28 27 26 27 28 28 29 29 29 29 28 28 29 29 28 28 28 29 29 29 29 30 31 30 31 30 30 29 29 30 30 30 30 32

GEFSSE_500_meanwind_180.txt.gz
Wind_Speed
5 6 6 6 6 6 6 7 8 9 9 10 10 11 12 12 13 14 14 14 14 14 13 13 13 12 12 12 12 12 12 11 11 11 11 11 10 10 10 9 9 9 9
6 7 7 7 7 7 8 8 9 9 10 10 11 11 12 13 14 14 14 14 15 15 15 14 14 14 14 14 14 13 13 13 12 12 12 12 12 11 11 11 11 10 10
8 8 8 8 8 9 9 10 10 10 11 11 11 12 13 14 14 14 14 15 15 15 15 16 15 15 15 15 15 15 14 14 14 13 13 13 13 13 12 12 11 11 11
9 9 9 10 10 10 10 11 11 11 12 13 13 13 14 14 14 15 15 15 16 16 16 16 16 16 16 16 16 16 16 16 15 15 15 14 14 14 14 13 12 12 11
9 10 10 10 11 11 11 12 13 13 13 14 15 15 15 15 15 15 16 16 17 17 17 17 17 17 17 17 17 17 17 17 17 16 16 16 15 15 15 14 13 13 13
11 11 12 12 12 12 12 13 14 14 15 15 16 16 16 16 16 16 17 17 17 18 18 18 19 18 18 18 18 18 18 17 18 17 17 16 16 16 16 16 15 14 14
12 12 13 13 13 13 14 14 15 16 16 17 17 17 18 18 18 18 18 18 18 18 18 19 20 19 19 19 19 19 18 18 18 18 17 17 17 17 17 16 16 16 15
13 14 14 15 15 15 15 16 16 17 18 18 19 19 19 19 19 19 19 19 19 19 19 20 20 20 20 20 19 19 19 19 19 19 19 18 18 18 17 18 18 18 17
16 15 15 16 17 17 17 17 18 18 18 19 19 19 20 20 20 20 20 20 21 21 21 21 21 21 21 20 20 20 20 20 19 20 20 20 20 19 19 19 18 18 18
18 17 17 17 18 18 18 19 19 20 20 20 20 20 21 21 21 21 21 22 22 22 22 22 23 22 22 22 21 21 21 21 20 21 21 21 21 21 20 19 18 18 19
18 17 18 18 19 20 20 20 20 20 20 20 21 21 22 23 23 22 22 22 22 22 23 23 23 23 23 22 22 22 22 22 22 22 23 22 22 23 22 21 21 20 20
19 19 20 20 20 21 21 21 21 21 21 21 22 22 23 23 24 23 23 23 24 24 23 23 23 24 23 23 23 23 23 23 24 24 24 24 23 23 23 23 22 22 21
19 20 21 21 21 21 22 22 23 23 22 22 23 23 23 24 24 24 24 24 23 23 23 24 24 24 24 24 24 24 23 23 23 24 24 25 25 24 23 24 24 23 22
20 21 22 22 23 24 24 24 25 24 25 25 24 23 23 24 25 25 25 24 24 24 24 24 25 25 25 24 25 25 25 24 24 24 24 25 25 25 25 25 25 25 24
21 23 24 24 24 25 26 26 26 26 26 25 24 24 24 24 24 25 25 24 24 24 24 24 25 26 26 25 25 25 26 25 24 25 26 25 25 25 26 26 26 26 26
22 23 25 26 26 26 27 27 27 27 26 26 26 25 26 25 25 25 25 24 24 25 25 25 26 26 26 26 26 26 26 26 26 25 26 26 26 26 27 27 27 27 27
23 24 26 27 27 27 27 27 28 28 27 27 27 27 27 26 26 25 25 24 24 24 25 25 25 26 26 26 27 26 26 27 27 27 27 27 27 27 27 28 28 28 28
23 24 25 26 27 27 27 27 28 29 29 28 28 28 27 27 26 25 25 25 25 25 25 25 25 26 26 26 26 27 27 27 27 27 27 27 27 28 28 28 29 29 30
24 24 26 27 28 27 26 26 28 28 28 29 28 27 27 26 25 24 25 25 25 25 26 26 26 26 26 27 26 26 26 26 26 26 27 27 28 29 29 30 30 29 29
25 25 27 27 27 27 28 27 28 28 28 28 28 27 27 26 24 24 25 25 26 26 27 26 26 27 26 26 26 25 25 25 25 26 27 27 28 29 30 30 30 30 30
26 27 27 27 27 29 28 28 28 28 28 28 27 27 26 26 25 25 25 25 26 27 27 27 27 27 26 26 26 25 25 26 26 26 27 27 28 29 29 29 31 31 31
27 27 27 27 27 27 28 28 28 28 27 26 26 25 25 25 25 24 25 25 26 26 27 27 27 27 27 27 26 26 26 26 27 27 27 27 28 29 29 29 30 31 32
26 27 27 25 26 26 27 26 27 26 25 24 24 25 25 25 24 24 25 25 26 27 27 26 26 26 26 26 26 26 26 26 26 27 27 28 28 28 29 30 30 31 32
27 26 25 24 24 25 26 25 25 24 24 24 25 26 26 25 25 25 24 25 25 26 25 25 25 26 25 25 26 26 27 27 27 27 27 27 28 29 29 31 31 32 32
26 25 24 24 23 24 24 24 24 23 23 24 24 25 24 24 24 24 24 24 25 25 25 24 24 25 24 25 26 26 27 27 27 27 27 28 28 29 29 30 31 32 32
26 26 26 25 24 23 23 23 22 21 22 22 22 23 23 23 23 24 24 24 24 24 24 24 24 24 24 25 25 26 27 27 28 28 28 28 29 29 30 30 30 31 32

GEFSSE_500_meanwind_186.txt.gz
Wind_Speed
7 7 7 7 8 8 8 8 8 7 8 8 8 9 9 10 10 10 11 11 11 11 11 12 12 12 12 12 12 12 12 12 11 11 10 10 10 10 10 10 10 10 10
7 8 8 9 9 9 9 9 9 9 9 9 10 10 10 11 11 12 12 12 11 11 12 12 13 13 13 13 13 14 14 13 12 12 12 12 11 11 11 11 12 12 11
8 9 9 9 9 10 10 10 10 10 10 11 11 11 12 12 13 13 13 13 13 13 13 13 14 14 14 14 14 15 15 14 14 13 13 13 13 13 12 13 13 13 12
9 10 10 10 10 10 10 11 11 11 11 12 12 13 13 14 14 15 15 15 14 15 15 15 15 15 15 15 15 15 16 16 15 15 15 14 14 14 14 14 14 13 13
11 11 11 11 11 11 11 11 12 12 13 13 14 14 15 15 16 16 16 16 16 16 16 17 17 16 16 16 16 16 16 16 16 16 16 16 16 16 16 16 15 15 14
12 12 12 12 13 13 13 13 13 14 15 15 15 15 16 16 17 17 17 18 18 18 18 18 18 18 18 18 18 18 17 17 17 17 17 17 17 16 16 16 16 15 15
12 12 13 13 13 14 14 14 15 16 17 17 17 17 17 18 18 18 19 19 19 19 19 19 19 19 19 20 20 19 19 18 18 18 19 18 18 17 17 16 15 15 16
14 14 14 14 14 14 15 15 16 17 17 18 18 19 19 19 19 20 20 20 20 20 20 20 21 22 22 22 21 21 21 20 20 20 19 20 20 19 18 18 17 16 16
15 15 15 16 16 16 16 17 17 17 18 18 19 20 20 20 21 21 21 22 22 22 22 22 22 24 24 24 24 23 22 22 22 21 21 21 21 21 20 20 19 19 18
16 16 16 17 17 17 18 18 18 19 19 20 20 21 22 22 22 22 22 23 23 24 23 24 24 25 26 26 25 24 24 24 23 23 22 22 23 22 22 21 20 20 20
16 17 18 19 19 20 19 19 20 20 21 22 22 22 22 23 24 24 24 24 24 24 24 25 25 25 25 26 26 24 24 24 24 24 23 23 23 23 23 23 22 21 21
18 18 19 20 21 21 22 21 21 22 22 23 23 23 23 24 25 24 25 25 25 25 26 26 26 26 26 26 25 25 25 24 24 24 24 24 24 24 24 24 24 23 22
19 20 21 21 22 23 23 23 23 24 23 24 24 24 25 24 24 25 25 25 25 25 26 25 26 26 25 25 25 24 24 24 25 25 24 24 25 25 25 26 25 25 24
20 21 22 22 23 24 24 24 24 25 25 25 25 25 25 25 25 25 25 26 25 25 26 25 25 26 26 25 25 25 25 25 25 25 26 26 26 26 27 26 26 26 26
21 22 22 23 24 25 24 24 25 25 25 26 26 27 27 26 27 27 27 27 26 26 26 26 25 25 26 26 26 26 27 27 27 26 26 27 27 28 27 27 27 27 28
21 22 23 24 24 25 24 24 25 25 26 27 27 28 28 27 27 27 27 27 27 27 27 27 26 26 26 26 27 27 27 28 28 28 28 28 28 28 28 28 28 28 28
23 23 24 25 25 25 25 26 26 26 27 27 28 28 29 28 28 28 27 28 28 28 27 27 27 27 27 27 27 27 27 27 28 28 28 28 29 29 30 30 30 30 30
22 23 24 25 24 25 26 25 25 24 26 27 27 28 29 29 28 28 28 28 28 27 27 27 27 27 27 26 27 27 27 27 27 28 28 28 29 30 30 30 30 30 30
22 24 25 25 25 26 25 25 25 25 26 26 27 28 28 29 28 28 28 28 28 28 28 28 27 27 27 27 27 27 26 27 27 28 28 28 29 30 29 30 30 30 31
23 25 25 25 25 25 26 26 27 28 29 27 27 28 28 27 27 27 27 28 28 28 28 28 28 27 27 28 29 28 28 28 28 28 29 29 29 30 29 29 30 30 31
25 25 25 26 26 27 28 28 27 29 29 27 26 26 25 25 25 26 26 26 27 28 28 27 28 28 29 29 29 30 29 29 29 28 29 29 29 29 30 30 31 31 32
24 25 26 26 28 29 29 28 28 28 29 26 23 23 23 24 24 25 25 27 27 27 27 28 28 28 28 29 29 29 30 29 29 29 29 29 29 29 30 31 31 31 32
24 25 25 27 27 28 28 28 27 27 26 25 23 23 23 24 24 23 25 26 26 26 26 27 27 27 28 28 28 28 28 29 29 29 30 30 30 30 31 32 32 32 32
25 26 27 27 27 27 27 28 28 26 25 25 23 23 23 23 24 24 25 25 26 26 26 25 26 26 27 27 27 28 28 29 28 28 29 30 31 31 31 32 32 33 33
26 27 27 27 27 27 27 27 26 25 25 25 24 23 22 22 23 24 24 24 25 25 25 24 25 26 26 26 26 27 28 28 28 28 29 30 31 32 33 32 33 33 34
26 27 27 28 27 26 26 26 25 25 24 24 23 22 21 21 22 23 23 23 24 24 24 24 24 25 25 25 25 26 27 28 28 29 29 30 31 31 32 33 33 33 34

GEFSSE_500_meanwind_192.txt.gz
Wind_Speed
4 4 4 3 4 5 5 5 6 6 6 6 6 7 7 7 8 8 8 8 8 8 7 8 8 8 8 8 8 9 9 9 9 9 9 9 10 10 10 10 11 11 11
5 4 4 4 5 5 6 6 7 7 8 8 8 8 9 9 9 9 9 9 9 9 10 10 10 10 10 10 10 10 10 11 11 11 11 11 11 11 11 11 11 12 12
5 5 5 5 6 7 8 8 9 9 9 9 9 10 10 10 10 10 10 10 11 11 11 12 12 12 12 12 12 12 12 12 12 12 12 12 12 12 13 12 12 12 13
7 7 6 6 7 8 9 9 10 11 10 10 10 11 11 12 12 12 12 12 12 12 13 13 14 14 14 14 13 13 13 13 13 14 14 14 13 13 13 13 13 13 14
8 8 8 8 8 9 9 10 11 12 12 12 12 12 12 13 13 13 13 13 13 14 14 14 15 15 15 15 15 15 15 16 15 15 15 15 15 15 15 15 15 15 15
9 10 10 10 10 10 11 12 13 13 13 13 13 14 14 14 14 14 15 15 15 15 15 16 16 17 17 17 17 17 17 17 17 17 17 17 17 17 17 16 17 17 17
11 11 11 11 11 12 12 13 14 14 14 15 15 16 16 16 16 16 16 17 17 17 17 18 18 19 18 18 19 19 18 18 19 19 19 19 19 19 19 18 18 18 18
11 12 12 12 13 13 14 15 15 15 15 16 17 17 17 18 18 18 18 18 19 19 20 20 20 20 19 19 20 20 20 21 21 22 21 21 21 21 20 20 20 20 20
12 13 13 14 14 15 16 16 17 17 17 18 18 19 18 19 19 19 20 20 20 21 20 20 20 20 20 20 20 21 21 22 23 23 23 23 22 22 22 22 22 21 22
13 14 15 15 16 17 17 17 18 19 19 19 19 19 20 20 20 21 21 21 22 22 21 22 22 22 22 22 21 21 22 23 23 24 24 24 23 23 23 23 23 22 23
15 16 16 16 17 17 17 18 20 20 20 20 21 20 21 21 22 22 22 22 23 23 23 23 23 23 22 22 22 22 23 23 22 24 25 25 24 24 23 23 23 23 24
17 18 18 18 19 19 19 20 20 21 21 22 22 22 22 23 23 24 24 24 24 24 24 24 24 24 24 24 23 24 23 24 23 23 24 25 25 25 25 24 24 24 24
18 19 20 21 21 21 21 22 22 22 23 23 23 24 25 25 25 25 25 25 25 25 25 25 25 25 25 25 25 25 24 24 24 24 23 24 25 25 26 26 25 25 26
20 21 22 22 23 23 24 23 23 23 24 24 24 25 25 26 26 26 26 26 26 26 26 25 25 25 25 25 26 26 26 25 25 25 24 24 25 25 26 26 27 26 26
21 21 23 23 24 25 25 25 24 25 24 25 25 25 26 26 27 27 27 27 27 27 27 26 26 26 25 25 26 26 26 26 26 27 25 25 25 26 26 26 27 27 27
22 22 24 24 24 25 26 26 26 25 25 25 26 26 27 27 27 27 28 28 28 28 28 28 27 27 26 26 26 27 27 27 27 27 26 25 25 26 27 27 27 28 28
23 24 25 25 26 26 27 26 27 26 26 26 26 28 27 28 28 29 28 28 28 28 28 28 27 27 26 26 26 26 26 26 26 26 26 26 25 25 26 27 28 28 29
24 25 25 26 27 27 27 27 27 27 27 27 28 27 27 27 28 28 28 28 28 28 28 28 27 27 27 26 26 26 26 27 27 26 26 26 26 26 26 27 27 28 29
25 26 26 27 27 27 27 27 27 28 27 26 26 27 27 27 27 27 28 28 28 27 28 29 28 27 28 28 28 27 27 28 28 28 27 28 28 28 27 27 28 29 29
25 25 26 26 26 27 28 28 28 28 27 26 26 27 27 27 26 26 26 27 28 27 27 28 27 27 27 28 28 28 28 28 29 29 29 29 30 30 29 29 29 29 30
25 25 25 25 26 27 27 27 27 27 27 27 27 27 28 27 25 26 25 25 25 25 25 25 25 26 26 27 28 28 29 29 29 30 31 31 31 31 31 30 30 30 31
26 25 25 26 27 27 27 27 26 26 26 27 27 27 26 24 24 24 22 23 24 23 24 24 25 25 26 27 27 28 28 29 29 30 31 32 32 32 32 32 32 31 31
25 25 25 26 26 27 27 26 26 26 26 26 26 25 24 23 22 22 22 22 23 23 23 23 24 25 25 26 27 27 27 27 29 29 29 31 32 33 33 33 34 33 33
24 25 25 26 26 26 26 26 26 25 25 25 25 24 23 23 23 23 23 23 24 24 23 23 24 24 24 25 25 26 27 27 28 28 29 30 31 32 33 33 33 34 33
24 25 25 26 26 26 25 25 25 25 25 25 24 23 23 23 23 23 22 23 24 23 23 24 24 24 24 25 25 26 27 27 27 28 28 30 31 32 32 33 34 34 34
24 25 25 25 25 25 25 24 25 25 25 24 24 24 24 24 23 23 23 23 24 23 24 24 24 24 25 25 26 26 26 26 26 27 28 30 31 32 33 33 34 34 35

GEFSSE_500_meanwind_198.txt.gz
Wind_Speed
7 8 8 8 8 8 7 8 8 8 8 8 8 9 9 10 10 10 9 10 10 10 10 10 10 10 10 10 11 11 11 11 11 11 11 11 11 11 11 10 10 10 12
8 9 9 9 9 9 8 9 9 9 9 10 10 10 11 11 11 11 12 11 11 11 11 11 11 12 12 12 12 12 12 12 12 13 13 12 12 12 12 12 12 11 12
9 10 10 10 11 10 9 10 10 10 11 12 12 12 12 13 13 13 13 13 13 12 12 13 13 13 13 13 13 13 14 14 14 14 14 14 14 14 14 13 13 13 13
10 11 11 11 11 10 10 11 11 12 12 13 14 14 15 14 14 14 15 15 14 14 14 14 14 14 14 14 14 15 15 15 15 15 15 15 16 16 15 15 15 15 15
10 11 12 12 12 11 12 12 13 14 14 15 16 16 16 16 16 16 17 16 16 16 16 16 16 16 16 15 16 16 16 17 17 17 17 17 17 17 16 17 17 17 17
10 12 13 13 13 13 13 14 15 15 16 16 17 17 17 17 18 18 18 18 18 17 17 17 18 18 17 17 17 17 17 18 19 18 19 18 18 18 18 19 19 19 18
12 13 14 14 14 14 15 16 16 17 17 17 18 18 18 18 18 19 19 19 19 19 19 19 19 20 19 19 19 19 19 19 20 20 20 20 20 19 19 20 21 21 20
14 15 16 16 16 17 17 18 18 18 19 19 19 19 19 19 19 19 19 20 20 20 20 20 20 21 21 20 20 20 20 21 20 21 22 22 22 21 21 21 21 22 22
16 17 17 17 18 18 19 20 20 20 20 21 21 21 21 21 20 19 20 20 20 20 21 21 21 22 22 21 21 21 21 21 20 21 22 22 22 22 23 23 23 23 23
17 18 18 19 19 19 20 22 21 22 21 21 21 21 22 21 21 21 21 21 22 22 22 23 23 23 23 22 22 22 22 22 22 23 23 22 23 23 23 23 24 24 23
18 18 20 19 20 21 21 21 22 22 22 22 21 22 22 23 22 22 23 23 23 23 24 24 24 24 23 22 22 22 23 23 23 24 24 24 24 24 24 24 25 25 24
19 19 20 22 22 21 22 21 22 22 23 23 23 23 23 23 24 24 24 24 24 24 24 25 25 25 23 22 23 23 23 24 24 24 25 25 25 25 25 24 25 25 25
21 21 22 23 23 23 23 23 23 23 23 23 23 25 25 24 24 24 24 25 25 24 23 24 24 24 24 24 23 23 24 24 24 24 24 25 25 25 25 25 25 26 26
21 23 24 24 24 24 24 24 24 24 24 24 24 25 26 25 25 25 25 25 26 26 25 24 24 24 24 24 23 23 24 24 24 24 23 23 24 24 25 25 26 27 27
23 24 24 24 24 24 24 25 24 25 25 26 26 26 26 26 26 26 25 26 26 27 28 27 25 25 24 24 24 24 24 23 23 24 23 23 24 25 25 25 26 27 28
24 25 24 24 24 24 24 25 25 25 26 26 27 27 27 27 26 26 26 26 27 27 28 28 27 25 25 25 25 24 25 24 24 24 23 23 24 25 25 25 25 26 28
25 24 25 25 24 25 25 26 26 26 26 27 28 28 28 27 27 26 26 26 27 28 28 27 26 27 26 26 26 26 26 26 25 25 25 24 25 26 26 27 27 27 28
25 26 26 25 26 26 26 26 27 27 27 27 28 28 28 27 27 27 26 26 26 26 26 25 25 26 27 27 26 27 27 26 26 26 25 26 26 26 26 26 27 27 27
25 26 26 27 27 26 26 27 27 27 27 27 28 27 28 27 27 26 25 24 25 24 24 24 24 24 25 25 25 26 26 26 26 26 26 27 27 26 26 26 26 27 27
26 26 27 28 28 27 26 27 27 27 27 27 28 27 27 26 26 25 25 25 25 25 24 24 24 24 24 24 24 25 25 26 26 25 26 27 27 27 28 26 26 27 27
26 27 26 27 27 27 27 28 27 27 27 27 27 26 25 25 24 25 25 25 25 25 24 24 24 24 24 24 25 25 25 25 25 25 26 26 27 27 28 28 28 28 28
26 27 26 26 27 27 28 28 28 27 28 27 27 26 25 25 25 25 25 25 25 24 23 23 23 24 24 24 24 25 25 25 25 24 25 26 26 27 28 28 29 29 29
26 27 26 26 27 28 28 27 27 27 26 26 25 24 23 23 23 23 24 23 23 23 23 23 23 24 24 24 25 26 26 25 25 25 25 25 26 27 28 29 30 31 31
27 27 27 27 27 26 26 26 27 26 25 24 23 23 22 22 23 23 23 23 22 22 23 23 24 24 24 24 25 26 26 26 26 26 26 26 26 27 28 29 30 31 32
28 27 27 27 26 25 25 26 26 25 24 24 23 22 22 22 22 22 22 22 22 23 23 24 25 25 25 25 25 25 26 27 27 26 26 26 26 26 27 29 30 31 31
26 26 26 24 24 24 25 25 25 23 23 23 22 22 22 22 22 22 22 23 23 23 24 24 24 24 25 25 25 25 26 27 27 27 26 25 25 26 27 28 29 30 31

GEFSSE_500_meanwind_204.txt.gz
Wind_Speed
7 7 7 7 7 7 8 8 8 9 9 10 11 11 11 12 12 12 12 12 12 12 12 12 12 12 12 12 13 13 13 13 13 13 14 13 13 14 14 14 13 13 13
7 8 9 8 8 8 9 9 9 10 10 11 12 12 13 14 14 14 14 14 14 13 13 13 13 13 14 14 14 14 14 14 15 15 15 15 15 14 14 15 14 14 14
9 9 9 8 9 9 9 10 10 11 11 12 12 13 14 14 15 15 15 15 15 15 15 14 14 15 15 15 15 15 15 16 16 16 16 15 16 16 16 16 16 16 15
9 9 8 9 9 10 11 11 11 12 13 13 13 14 15 15 15 16 16 16 16 16 15 16 16 16 16 16 16 16 16 16 17 17 17 17 17 17 17 17 17 17 17
10 10 10 9 10 10 12 12 13 13 14 14 15 15 16 16 17 17 17 17 18 17 17 17 17 17 17 17 17 18 17 17 17 17 17 18 18 19 19 19 19 19 19
11 11 11 10 11 12 13 14 14 14 15 15 15 16 17 17 17 18 19 19 19 19 19 19 19 18 18 18 18 19 19 19 19 18 18 19 20 20 20 20 21 20 20
13 12 12 11 12 13 13 13 13 14 15 15 16 16 17 17 18 19 20 20 20 20 20 20 20 20 20 19 19 20 20 20 20 20 20 20 21 21 21 21 22 22 21
12 12 11 12 13 13 14 14 14 15 14 15 16 16 17 17 18 19 20 21 21 21 21 21 21 21 21 21 21 21 21 22 22 21 20 20 21 21 22 22 22 22 23
12 12 13 13 14 15 14 15 16 15 15 16 17 17 18 18 19 20 21 21 22 22 22 21 22 22 22 23 22 22 22 22 21 22 21 21 21 21 22 23 23 23 23
13 14 14 15 16 16 15 16 17 17 17 18 17 18 19 20 20 21 21 22 23 23 22 21 21 22 22 23 22 22 22 22 22 22 23 23 23 23 23 23 24 24 24
14 15 16 16 17 17 17 18 19 19 18 18 19 20 20 21 21 21 21 21 22 22 22 22 22 22 23 23 23 23 23 23 23 23 24 24 23 23 24 24 24 25 25
17 17 18 19 18 18 18 19 19 19 19 19 20 20 20 21 21 21 22 22 23 23 23 24 23 23 23 23 23 23 23 23 23 23 24 24 24 25 25 25 25 26 26
19 19 20 21 19 18 19 19 20 20 20 19 20 21 21 21 22 22 22 23 24 24 24 24 24 24 24 24 23 23 23 23 24 24 24 24 25 25 25 25 26 26 27
19 20 21 22 21 21 20 20 20 20 20 20 21 21 21 21 22 22 22 23 23 23 23 23 23 23 24 24 23 23 23 23 24 24 24 25 25 25 25 25 26 27 27
19 20 20 21 21 22 21 20 20 20 21 21 21 21 21 21 22 23 22 23 23 23 23 22 22 22 23 23 23 23 23 23 24 25 25 26 26 25 26 26 26 27 27
20 19 20 21 22 23 22 22 21 21 22 22 21 21 22 22 22 23 23 22 22 22 22 21 21 20 21 21 21 21 22 23 23 24 25 25 26 26 26 27 27 28 28
21 21 21 22 23 23 22 22 22 22 23 23 23 23 23 23 23 22 22 22 22 20 20 20 20 19 19 20 20 20 21 21 22 23 24 25 25 26 27 27 27 28 28
22 23 22 21 22 22 23 23 23 23 23 24 24 23 23 23 22 22 22 21 20 19 19 19 19 19 18 18 19 20 21 21 21 22 23 24 26 27 28 28 28 27 28
23 22 22 22 23 22 23 23 23 24 24 24 24 23 23 22 21 20 20 19 19 19 19 19 18 18 19 19 19 19 20 21 21 21 22 24 25 27 28 28 29 29 28
23 23 23 23 23 23 23 23 23 23 24 24 24 23 22 21 21 20 19 19 19 19 20 19 19 19 19 19 20 20 20 21 22 22 23 23 24 25 27 29 29 29 29
23 22 23 24 24 24 24 23 22 22 23 22 21 21 20 20 19 19 19 19 19 19 20 19 19 19 19 19 20 20 21 22 22 22 22 23 24 25 25 26 27 28 29
22 23 24 23 23 23 23 23 22 21 22 21 21 20 19 19 19 19 18 18 19 20 19 19 19 20 20 20 21 21 21 22 22 22 23 23 23 24 24 25 26 27 29
23 23 23 22 22 22 21 21 20 20 21 20 20 20 19 19 20 20 19 19 19 19 18 19 20 20 20 20 21 22 22 22 22 23 23 22 22 23 24 25 26 28 29
23 24 24 24 23 22 21 21 21 21 20 20 20 20 20 20 20 20 20 20 20 19 19 19 20 20 21 21 22 23 23 23 23 23 23 23 24 24 25 26 27 28 29
23 23 23 23 22 22 21 21 21 21 20 20 20 20 20 20 20 19 19 19 19 19 19 20 20 21 21 22 23 24 24 24 23 23 23 23 24 24 25 26 27 28 29
22 22 22 23 22 21 21 21 20 20 20 19 20 19 19 19 18 18 18 18 18 19 19 20 20 21 22 23 23 24 25 24 24 24 24 24 25 25 25 26 27 28 29

GEFSSE_500_meanwind_210.txt.gz
Wind_Speed
7 7 8 9 9 9 7 8 8 8 8 8 8 8 9 9 10 10 10 10 11 11 11 11 11 11 11 11 12 12 12 12 12 13 13 13 13 13 13 13 13 13 13
8 8 8 10 10 10 8 8 9 9 9 9 9 9 10 10 11 11 11 11 12 12 12 12 12 12 12 12 13 13 13 13 13 14 14 14 14 15 14 14 14 15 14
9 9 9 10 11 11 10 9 10 10 10 10 10 11 11 12 12 12 12 12 13 13 13 13 13 13 13 13 14 14 15 14 15 15 15 16 16 16 16 15 15 16 16
10 10 10 10 10 10 10 11 12 12 11 10 11 11 12 13 13 13 13 14 14 14 14 14 14 14 15 15 15 15 16 16 16 16 16 16 17 17 17 17 17 17 17
10 10 11 10 10 11 12 13 13 13 12 11 12 13 13 13 14 14 14 14 14 15 15 16 16 16 16 16 16 16 16 17 17 17 18 18 18 19 19 18 19 18 18
10 11 11 11 12 12 13 14 14 13 13 13 13 14 14 14 14 15 15 16 16 16 16 17 17 17 17 17 18 18 17 17 17 18 18 19 19 20 20 20 19 19 19
11 11 12 12 12 13 13 14 14 14 14 14 14 15 15 15 16 16 16 17 17 17 18 18 18 19 19 19 19 19 19 19 18 19 19 19 20 20 21 21 20 20 20
12 12 13 13 14 14 15 15 15 15 15 16 16 17 16 16 17 18 18 18 18 19 19 19 19 20 20 20 20 20 20 20 20 20 20 19 20 21 21 21 21 21 21
12 13 14 15 15 16 17 16 16 17 17 17 17 18 17 18 18 18 19 19 20 20 20 20 20 20 21 21 21 21 21 21 20 20 20 20 21 21 21 22 22 21 21
13 14 15 16 17 17 18 17 17 17 18 18 18 18 19 19 20 20 21 20 20 21 21 21 21 22 22 22 22 22 23 22 21 21 21 21 21 22 22 22 22 22 22
14 15 16 17 18 17 18 18 18 18 18 18 19 19 20 21 21 21 22 21 21 21 22 22 22 23 23 23 23 23 23 23 23 22 21 22 22 22 22 22 23 23 22
15 16 16 17 19 20 19 18 19 19 20 20 20 20 20 21 21 22 22 22 22 22 22 22 22 22 23 23 23 23 23 23 23 23 22 22 22 23 24 23 23 24 23
16 16 17 18 19 20 20 19 19 19 20 21 21 21 21 21 21 22 22 22 23 22 23 23 23 23 23 23 23 22 22 23 23 23 23 23 23 23 24 24 24 24 25
17 18 18 19 20 20 20 21 21 20 21 22 22 22 22 21 22 22 23 23 23 23 23 23 23 23 22 22 21 21 21 22 22 22 22 23 23 24 24 25 25 25 26
19 20 20 20 21 21 20 21 21 22 23 22 22 22 22 22 23 22 23 23 23 22 22 22 22 22 22 21 21 21 20 21 22 22 22 22 23 24 24 25 25 25 26
20 21 21 21 20 20 20 21 21 23 24 23 22 22 22 22 22 22 22 22 22 22 22 21 21 21 21 21 22 22 20 20 20 21 22 22 23 24 24 25 26 26 26
20 22 22 21 20 20 21 21 21 22 22 22 21 21 21 21 21 21 22 22 22 22 21 21 21 21 21 21 21 22 21 20 20 21 22 22 23 24 24 25 26 27 26
21 21 22 21 20 20 21 22 21 22 21 21 21 21 21 21 21 21 21 21 20 20 20 20 21 21 21 21 21 22 22 21 21 21 22 23 24 25 25 25 26 27 27
21 21 21 21 21 21 21 22 22 21 20 21 21 21 22 22 21 20 19 19 19 19 20 20 20 21 21 21 21 21 22 23 22 22 22 23 24 25 25 26 27 28 29
21 22 22 22 22 21 22 23 22 20 20 20 21 21 21 20 20 20 19 18 18 19 20 21 21 21 22 22 22 22 23 24 23 23 22 23 24 25 26 26 27 28 30
22 22 22 23 22 22 22 22 21 20 20 20 20 20 20 19 19 19 19 19 20 20 21 21 21 22 21 22 23 23 23 24 24 24 24 24 25 25 26 26 26 26 29
22 22 22 23 22 22 21 21 21 20 20 19 19 18 18 18 19 19 19 19 19 20 20 21 21 21 22 23 23 23 24 24 24 25 26 26 26 26 26 26 26 27 27
22 22 22 21 21 21 20 20 19 19 18 18 18 17 17 18 18 17 18 19 19 19 20 21 22 22 22 23 24 25 24 24 25 26 27 27 26 26 25 25 26 27 27
22 22 22 20 19 19 19 19 17 17 17 17 17 16 16 17 17 17 18 19 20 20 20 21 22 23 23 24 25 26 26 26 26 26 27 27 27 26 26 26 26 27 27
22 22 20 19 17 18 18 19 18 18 17 16 16 16 16 17 17 18 18 19 20 21 22 22 23 22 23 23 24 25 26 27 26 26 26 26 27 27 27 27 27 27 28
22 21 20 18 17 17 18 18 18 18 17 16 17 16 16 17 18 18 19 19 20 21 21 21 22 22 23 23 23 25 26 26 26 27 27 26 27 28 28 27 27 28 29

GEFSSE_500_meanwind_216.txt.gz
Wind_Speed
2 3 3 4 4 5 6 7 7 6 6 5 6 6 6 6 6 6 6 6 7 7 7 7 7 7 7 8 8 9 9 9 9 9 10 11 11 11 11 12 11 12 11
4 4 5 5 6 6 6 7 8 7 6 6 6 6 6 7 7 7 7 7 8 8 9 9 9 9 9 9 9 9 9 10 10 10 11 12 12 13 13 13 13 13 13
6 6 6 6 6 7 7 7 8 8 7 8 8 8 7 7 7 8 8 9 9 10 10 10 11 11 11 11 11 11 10 10 10 11 12 13 14 14 14 14 14 14 14
7 7 7 8 7 8 8 8 8 9 9 9 9 10 10 10 9 9 10 10 10 11 12 11 12 12 12 13 13 12 12 12 12 12 13 14 15 15 15 15 15 15 15
8 8 8 9 9 9 9 10 10 10 10 10 11 11 11 11 11 11 11 11 12 12 13 13 13 13 14 14 14 14 14 13 13 13 13 14 16 16 16 16 16 16 16
9 10 10 10 10 10 10 11 12 12 12 12 13 12 13 13 12 12 12 12 12 13 13 13 13 14 14 15 15 15 15 15 15 15 14 15 16 16 17 17 17 18 18
10 10 10 11 11 11 12 12 13 14 13 13 14 14 14 14 14 14 14 13 13 13 14 15 15 14 15 15 16 16 16 16 16 16 16 16 17 17 17 18 18 18 18
11 11 12 12 13 13 13 14 14 15 15 15 16 15 16 16 15 15 15 15 15 15 15 16 16 16 16 16 17 17 18 18 17 17 17 18 18 18 18 18 19 19 19
12 13 14 14 14 14 15 15 16 16 17 17 17 16 16 16 17 17 16 16 16 16 17 17 17 17 17 17 18 18 18 19 18 18 18 19 19 19 19 20 20 20 20
12 13 13 14 15 15 16 16 17 18 18 18 18 18 17 17 18 18 18 18 17 17 18 18 19 19 19 18 18 18 19 19 20 20 20 19 20 20 20 20 20 20 21
13 13 14 15 16 16 17 18 19 19 19 19 19 19 19 19 18 18 19 19 19 19 19 19 19 20 19 19 19 19 19 20 21 21 21 21 21 22 21 21 21 22 22
14 15 15 16 17 17 18 19 19 19 20 20 19 19 19 19 19 19 19 19 19 19 20 20 19 20 20 20 19 19 20 20 21 22 22 22 22 22 22 22 22 22 23
15 16 17 17 18 18 19 19 20 20 20 20 20 19 19 19 19 20 20 19 20 20 20 20 20 19 19 19 19 19 19 20 20 21 22 22 22 22 23 22 22 23 23
16 16 17 17 18 18 18 18 19 20 20 20 20 19 19 19 20 20 20 20 20 20 20 19 20 19 19 19 19 19 19 20 20 20 21 21 22 23 24 23 23 22 23
18 18 18 18 17 18 18 19 19 20 20 20 20 20 19 20 20 20 20 20 20 20 21 20 20 20 20 19 19 19 19 20 20 21 21 21 21 22 23 24 23 23 23
19 19 19 19 19 20 20 20 20 20 21 20 20 20 20 20 19 19 20 20 21 21 21 21 21 20 21 20 20 21 20 20 21 22 23 22 21 22 23 24 24 25 25
20 19 19 20 20 21 21 21 20 20 21 20 20 20 20 20 20 20 20 20 21 21 22 22 21 21 21 21 21 21 22 22 23 23 23 24 24 23 23 24 25 25 25
21 21 21 21 21 21 21 21 21 21 21 21 21 20 21 21 21 21 21 21 21 20 20 20 21 21 21 22 22 22 23 23 23 23 23 24 25 24 24 24 25 26 26
21 22 21 21 21 20 20 20 21 21 20 20 20 20 20 20 20 20 21 21 20 19 19 19 20 20 20 21 22 23 23 23 23 24 24 24 25 25 26 25 25 26 27
21 21 21 21 20 19 19 19 20 20 20 20 20 19 19 19 19 19 19 19 19 18 19 19 19 20 20 21 22 22 23 23 24 24 24 25 25 26 27 27 27 27 28
21 21 21 20 19 20 20 20 20 19 18 18 18 18 17 17 17 17 18 18 19 19 19 19 20 20 21 21 22 23 24 24 24 25 25 26 25 26 26 27 28 28 28
20 21 21 19 18 20 20 20 19 17 17 16 16 16 17 16 16 17 16 17 18 18 18 20 20 21 21 22 22 23 24 25 25 25 26 26 26 27 26 28 29 29 29
20 20 20 19 19 19 19 18 17 16 15 16 16 16 17 17 16 16 16 16 17 18 18 19 20 21 21 22 23 23 24 24 25 25 26 26 27 27 28 27 28 28 28
19 19 19 18 18 18 18 17 16 15 16 16 16 16 16 16 16 15 15 17 18 18 19 19 20 21 21 22 22 23 23 24 25 26 25 25 26 26 27 27 27 28 28
18 18 17 17 18 18 17 16 15 14 14 15 16 15 16 15 15 15 16 17 18 18 19 19 20 21 21 21 21 21 21 22 23 24 24 24 25 26 26 26 28 27 28
18 18 18 17 18 17 16 15 14 13 14 14 15 15 15 15 14 15 16 16 17 18 18 19 19 20 20 20 20 20 20 20 20 21 22 23 25 26 26 26 27 27 28

GEFSSE_500_meanwind_222.txt.gz
Wind_Speed
7 8 8 8 8 8 8 9 9 9 9 9 8 7 8 8 9 9 9 10 10 10 9 9 9 9 9 10 10 10 9 9 9 10 11 10 10 10 10 10 11 10 10
8 8 8 8 9 9 9 9 9 10 10 9 9 9 9 10 10 10 10 10 10 10 10 10 11 10 11 10 11 11 11 10 10 11 11 11 11 11 11 12 11 11 11
8 8 9 9 10 10 10 10 10 9 10 10 10 9 10 10 11 11 11 11 11 11 11 11 11 11 11 12 12 12 12 12 12 11 12 12 12 12 12 13 12 12 12
10 10 10 11 11 11 11 11 11 11 11 11 11 11 11 11 12 12 12 12 12 12 12 12 12 12 12 12 12 12 13 13 13 12 12 13 12 13 13 14 14 13 13
12 12 12 12 12 11 11 11 12 11 11 12 12 12 12 12 13 13 13 13 12 13 13 13 14 13 13 13 13 13 13 14 14 14 13 13 13 14 15 15 15 15 15
14 14 14 13 12 13 13 12 12 12 12 12 13 13 13 14 14 14 13 13 14 14 14 14 15 15 15 15 14 15 15 15 15 15 15 14 14 15 15 15 16 16 16
15 15 15 14 14 13 14 13 13 13 13 13 14 14 15 15 15 14 14 14 14 14 15 15 15 16 16 16 16 16 16 17 16 16 16 16 16 16 16 15 15 16 16
15 15 15 16 15 15 15 14 14 15 15 15 15 16 16 16 15 15 15 15 15 15 16 16 16 16 17 17 17 17 18 18 18 17 17 17 17 17 17 17 17 17 17
15 16 16 16 15 15 15 15 15 16 16 16 16 17 17 16 16 16 16 16 16 16 16 16 16 17 17 17 17 17 17 18 19 19 18 17 17 17 17 18 18 19 18
15 15 15 16 15 15 15 16 16 16 17 17 17 17 17 17 17 17 17 17 17 17 17 17 17 17 17 17 18 18 18 18 18 19 19 19 18 18 18 18 19 20 20
15 15 15 15 15 15 16 16 16 16 18 18 18 18 19 19 18 17 17 17 17 18 18 18 18 18 18 17 18 18 18 18 19 18 19 19 20 19 19 19 20 21 21
16 17 15 14 15 16 16 16 16 17 18 18 19 19 19 20 19 18 18 18 18 18 18 18 18 18 18 17 17 18 18 18 18 18 19 20 20 21 21 21 21 22 22
17 16 15 15 16 17 17 17 18 18 18 19 19 19 20 20 20 20 19 19 19 19 18 18 18 18 18 18 19 18 19 20 19 18 18 19 20 20 21 22 22 22 22
17 17 17 17 17 17 18 18 19 19 19 19 19 20 20 20 19 19 19 19 19 18 18 19 18 18 18 18 18 18 19 19 19 18 18 19 20 21 22 22 22 23 23
17 18 18 18 18 18 18 19 19 19 19 20 20 20 19 19 19 19 19 19 19 19 19 19 19 19 19 19 19 19 19 19 20 20 19 19 20 21 22 22 23 24 24
18 19 19 18 18 18 19 20 19 19 19 19 20 20 20 20 19 19 19 19 19 19 20 20 20 20 20 19 19 20 20 20 20 20 20 20 20 22 23 24 24 23 24
19 19 19 20 20 19 19 20 21 19 18 19 20 21 21 20 20 19 19 19 19 19 19 19 19 19 19 19 20 21 21 21 21 21 22 22 22 22 23 24 24 24 24
20 20 20 22 21 21 21 20 21 21 20 20 21 21 21 21 21 20 20 19 19 19 19 19 18 18 19 20 21 21 22 23 22 23 23 24 24 23 23 24 24 25 26
21 21 21 22 22 22 21 21 22 22 21 21 21 21 22 21 20 19 18 18 18 18 18 19 18 19 19 20 21 22 22 23 23 23 24 24 24 23 24 25 25 26 26
21 21 21 22 22 23 22 22 22 22 22 22 21 21 21 21 20 19 19 18 18 17 17 18 18 19 19 19 21 21 21 22 22 23 23 24 24 25 25 25 25 25 26
21 22 22 23 23 23 23 22 23 23 22 21 21 22 21 20 19 19 19 18 17 17 18 17 17 18 18 19 19 20 20 21 22 23 24 24 24 25 25 25 25 26 26
22 22 22 22 22 22 21 22 22 21 21 21 21 21 21 19 18 18 18 17 16 16 16 17 16 17 18 19 19 19 20 21 21 22 23 23 23 23 24 25 26 27 28
22 21 21 20 20 20 20 21 20 20 20 19 20 20 19 19 18 17 17 16 16 16 15 15 16 17 18 18 19 20 20 20 21 22 22 23 23 23 23 24 25 27 27
21 21 20 18 18 18 19 19 19 19 18 18 18 18 17 18 17 15 15 15 15 15 14 15 16 17 18 18 19 19 20 20 20 21 21 21 22 23 23 24 25 25 25
20 20 20 18 18 18 18 18 18 18 17 16 17 16 16 16 16 16 15 16 15 15 14 15 16 17 18 18 19 19 19 20 20 20 20 20 21 21 21 22 22 23 25
20 20 18 18 17 17 18 17 16 16 15 15 16 16 16 15 15 15 15 15 15 15 15 16 17 17 17 18 18 19 19 19 20 21 21 21 20 21 22 23 23 24 26

GEFSSE_500_meanwind_228.txt.gz
Wind_Speed
8 7 7 8 7 7 7 8 9 9 9 9 9 9 9 9 9 9 9 9 10 10 10 11 11 11 11 11 11 11 11 10 10 11 11 11 10 10 10 9 10 10 10
9 8 7 7 8 8 9 10 10 11 10 10 10 10 10 10 10 10 10 10 11 11 11 12 12 12 12 12 12 12 12 12 12 12 12 11 11 11 11 10 11 10 11
9 9 8 9 9 9 10 10 10 10 11 11 11 11 11 11 11 11 11 12 12 12 12 13 12 12 12 13 13 13 13 13 13 13 12 12 12 12 12 11 11 11 12
10 10 10 10 10 10 10 10 10 10 10 11 11 11 12 11 12 12 12 13 13 13 13 13 13 13 12 13 14 14 14 14 15 14 14 13 13 14 13 13 12 12 13
10 10 11 10 10 10 10 11 10 10 11 11 11 12 12 12 12 13 13 13 14 14 14 14 14 13 13 13 14 14 14 14 15 14 14 14 14 14 14 14 14 13 14
10 10 10 10 11 12 11 11 11 10 10 11 11 12 12 12 13 13 14 14 14 14 15 15 14 14 14 15 15 15 15 14 15 15 15 14 14 14 15 15 15 14 14
10 10 11 10 11 13 13 11 12 11 11 11 11 11 12 12 13 14 15 15 15 15 16 16 16 16 16 16 16 16 15 15 15 16 16 16 16 16 16 15 16 15 15
11 11 12 12 12 13 13 12 13 12 11 12 12 12 12 13 14 15 15 15 15 16 16 16 16 16 16 16 16 17 16 16 17 16 16 16 17 17 17 16 16 16 16
12 12 12 12 12 12 12 13 12 12 11 11 11 12 13 13 14 15 15 15 16 17 17 17 17 17 17 17 17 17 16 16 16 16 16 16 17 17 18 18 17 17 17
10 10 11 11 12 12 13 12 12 12 12 11 12 13 14 14 15 15 16 16 16 17 17 17 18 18 17 17 17 17 17 17 17 17 17 17 17 17 18 18 18 18 18
10 10 11 11 12 13 14 14 13 13 12 12 13 14 14 15 15 16 16 16 17 17 17 17 18 18 18 18 18 18 17 18 17 17 18 18 18 18 18 18 19 19 19
12 12 12 12 12 13 14 14 13 13 13 13 14 15 16 16 16 17 17 17 18 17 17 17 18 18 19 18 19 19 19 18 18 18 17 18 18 18 18 18 18 19 20
13 12 13 13 13 14 14 13 13 14 14 15 15 16 17 17 17 17 18 18 18 17 17 17 18 18 18 18 19 19 19 19 18 18 18 18 19 19 19 19 19 19 19
13 13 13 14 14 14 15 15 15 15 15 16 16 16 17 17 17 17 17 17 17 17 17 17 17 17 18 19 18 18 18 19 18 17 18 18 19 19 20 20 20 20 21
14 14 14 16 16 16 16 16 16 16 16 16 17 17 17 17 17 18 17 16 17 17 18 18 18 17 18 18 18 18 18 18 19 18 18 19 20 20 20 20 20 20 22
15 15 15 16 17 17 17 16 16 17 17 17 17 17 17 17 18 17 18 17 17 18 18 18 18 18 18 18 19 19 19 19 20 20 19 20 21 21 21 21 21 20 21
15 15 16 17 17 17 17 18 18 18 18 18 17 17 18 18 19 18 17 17 17 18 18 18 18 18 18 18 19 20 20 21 21 21 21 21 22 22 22 22 22 22 23
15 16 17 18 18 18 18 19 19 19 19 19 18 18 18 18 19 19 18 18 17 18 18 18 18 18 18 19 19 19 20 21 21 21 21 22 23 23 23 24 24 24 24
15 16 18 19 19 19 19 19 19 18 18 19 19 19 19 18 18 18 18 17 17 17 17 18 18 18 18 19 19 19 19 20 20 20 21 21 22 23 24 24 24 24 24
16 17 18 18 18 19 19 19 18 18 18 18 18 19 19 19 18 18 18 17 17 17 17 17 17 18 18 19 19 19 19 19 20 20 20 21 21 22 23 23 24 24 24
17 19 19 19 19 19 20 19 18 18 18 19 19 19 19 19 17 17 18 18 17 17 17 17 17 17 17 17 18 18 18 18 19 20 20 20 21 21 22 23 23 24 24
17 19 20 19 20 20 20 19 19 18 18 18 18 19 18 18 18 17 16 16 16 17 17 17 17 17 17 17 17 17 18 19 20 20 21 21 21 21 22 23 23 23 24
19 20 20 19 19 20 19 19 18 18 18 18 18 18 17 18 17 16 15 15 15 15 16 16 17 17 17 17 18 18 18 18 19 20 21 21 21 22 21 21 22 23 24
20 21 21 20 20 20 19 19 18 18 17 17 16 16 16 15 15 15 15 14 14 15 15 16 16 16 16 17 18 19 19 19 19 19 20 21 21 21 21 21 22 23 24
21 20 20 20 20 19 18 18 18 17 17 17 16 15 14 14 15 15 14 14 14 14 15 16 16 17 17 18 18 18 19 19 19 19 19 20 20 20 21 22 22 23 25
20 19 19 20 19 18 18 17 17 16 16 16 16 14 14 14 14 14 14 14 15 15 15 16 16 17 18 18 18 18 18 18 18 18 19 19 20 20 20 21 22 23 23

GEFSSE_500_meanwind_234.txt.gz
Wind_Speed
9 9 9 8 7 7 6 6 6 6 7 7 7 7 7 8 8 8 7 7 8 8 9 9 9 9 10 10 10 9 9 10 10 10 9 9 10 10 10 10 10 11 11
10 9 9 8 7 7 7 7 7 7 7 7 7 7 8 8 8 8 8 8 9 10 10 10 10 10 10 10 10 10 10 11 10 11 11 10 11 11 12 11 11 11 11
11 10 9 8 8 8 8 8 8 8 8 8 8 9 9 8 8 8 8 9 9 10 11 11 11 11 11 11 11 11 11 11 11 11 11 11 11 11 11 11 11 12 12
10 10 9 9 9 9 9 9 9 8 8 8 9 9 9 8 8 9 9 9 10 11 11 12 12 12 12 12 12 12 11 12 13 12 12 12 11 11 11 11 11 12 12
10 10 9 9 9 9 9 9 9 8 9 9 9 9 9 9 9 9 9 10 11 11 12 12 12 12 12 12 13 12 12 13 13 13 13 11 10 11 12 12 12 12 11
9 9 9 10 9 9 9 9 8 9 9 9 9 9 10 10 10 10 10 11 11 11 12 13 13 13 13 13 13 13 13 13 13 13 12 13 12 12 12 12 12 12 11
9 9 9 9 9 9 9 9 9 9 9 9 10 10 10 10 11 11 12 12 12 13 13 13 13 14 14 14 14 14 14 14 13 13 14 13 13 13 13 12 12 12 12
8 9 10 10 9 9 9 9 9 9 9 10 10 10 10 10 10 11 13 13 13 14 14 14 14 14 14 15 15 15 15 15 15 15 14 14 14 14 14 13 13 13 13
9 9 10 10 10 10 10 10 10 9 10 11 11 11 11 11 12 13 13 14 14 14 15 15 15 15 15 16 16 16 16 15 15 16 15 15 15 15 15 14 13 13 13
10 10 10 11 11 11 11 11 10 10 11 12 12 12 12 12 13 13 14 15 15 15 15 15 16 16 16 17 17 18 17 16 16 16 15 15 15 16 16 15 15 14 14
10 10 10 11 11 11 11 11 11 11 12 13 13 13 13 13 14 15 15 16 15 15 16 16 16 16 16 17 17 17 17 17 16 16 16 16 16 15 15 16 16 16 15
9 10 12 13 13 12 12 11 11 12 13 14 14 14 14 14 15 16 17 16 15 15 16 16 17 16 16 16 17 17 18 17 17 17 17 17 17 16 16 16 17 17 17
10 11 13 13 14 13 13 12 12 13 14 15 15 15 15 15 16 16 17 17 16 16 16 16 16 16 16 17 17 18 18 18 18 18 18 18 17 17 17 17 18 18 18
11 12 13 13 14 14 13 14 13 13 15 16 16 17 16 16 17 17 17 17 17 16 16 17 16 17 17 18 18 18 19 19 18 19 19 19 19 18 19 19 19 19 19
11 13 13 14 14 13 13 13 14 15 15 16 17 17 17 17 17 18 18 18 18 17 17 17 17 18 18 18 17 17 18 19 19 19 19 19 19 20 20 20 20 20 20
12 13 15 15 15 15 14 15 15 16 17 17 17 17 18 18 18 18 19 18 18 18 17 17 17 18 18 18 18 18 19 19 19 20 20 20 20 21 21 21 21 21 22
12 13 15 16 16 16 16 16 17 17 18 17 18 18 18 18 18 18 18 18 18 18 18 18 18 18 18 18 19 18 19 19 20 21 21 21 21 21 22 23 23 22 22
13 14 14 15 15 15 16 16 17 17 18 18 19 19 18 18 18 18 19 18 18 18 18 18 18 17 17 18 19 19 19 20 21 21 22 22 22 22 22 23 23 23 23
15 15 15 15 15 16 16 17 18 18 19 19 19 19 19 18 18 18 18 18 18 18 18 18 17 17 18 19 19 20 20 20 21 21 22 22 22 23 23 23 23 24 24
17 17 16 16 16 16 17 18 18 19 19 19 19 18 18 18 17 17 17 17 17 17 18 18 18 18 18 19 19 20 20 21 21 22 22 22 23 23 23 23 24 24 24
18 18 17 17 18 18 18 18 19 18 18 18 18 18 18 17 17 17 17 16 17 17 18 18 18 18 18 18 19 20 21 22 22 22 23 22 22 22 23 23 23 24 24
18 19 18 17 18 19 19 19 18 18 17 18 18 18 18 17 17 16 16 17 17 17 18 18 18 18 18 18 19 21 22 22 22 22 22 22 22 22 22 23 23 23 24
18 18 18 17 18 19 19 18 18 18 18 18 17 17 17 17 17 16 16 16 17 17 17 17 17 18 18 19 19 20 21 21 22 22 22 22 22 22 22 22 23 23 23
17 17 17 18 19 19 19 17 17 18 18 17 17 17 17 17 17 17 17 17 17 17 17 17 17 18 19 19 19 19 20 20 21 21 21 21 21 21 22 22 22 23 24
18 18 18 19 20 19 18 17 16 17 17 16 16 16 17 17 17 17 17 17 16 16 17 17 17 18 19 19 19 19 19 19 19 20 20 21 21 22 22 23 22 23 24
17 18 18 19 20 19 18 17 16 17 17 16 16 15 16 16 17 16 16 16 17 17 17 17 18 18 18 19 18 19 19 20 19 19 20 20 20 21 22 23 23 23 23

GEFSSE_500_meanwind_240.txt.gz
Wind_Speed
5 5 5 4 4 4 4 4 3 3 3 2 2 1 1 1 2 3 3 4 4 5 5 5 6 6 6 6 5 6 7 7 8 8 8 9 8 9 10 10 10 10 12
5 5 5 5 4 4 3 3 3 3 3 3 2 2 2 2 2 3 3 4 5 5 6 6 6 7 7 7 7 8 8 8 8 8 9 11 10 10 10 11 11 11 11
5 5 5 5 4 4 4 3 3 3 3 3 3 4 3 3 3 3 3 4 5 5 6 6 7 7 8 8 8 9 9 9 9 9 9 10 10 11 11 12 11 12 12
6 5 5 5 4 5 4 5 4 4 4 4 4 4 4 4 4 4 4 5 5 6 7 7 8 8 9 9 9 9 9 10 9 10 10 10 11 11 11 12 12 13 13
6 6 6 5 5 6 5 5 5 4 4 5 5 5 4 5 5 5 5 6 6 7 8 8 9 9 9 10 10 10 10 10 10 10 11 11 11 12 12 12 12 13 13
6 7 8 7 6 7 7 5 6 6 6 6 6 6 5 5 5 6 6 7 7 8 8 9 10 10 10 10 11 11 11 11 11 11 11 12 12 12 13 13 13 13 13
7 8 8 8 8 7 7 7 8 7 7 7 7 6 5 6 6 6 7 8 8 9 9 10 10 11 11 11 11 11 11 11 12 12 13 13 13 13 13 14 14 14 14
8 8 8 8 8 8 8 8 8 8 7 7 6 6 7 7 7 7 8 9 9 10 10 10 11 11 11 11 12 11 12 12 12 12 13 13 12 12 13 14 15 15 15
8 9 9 8 8 9 9 9 8 8 8 7 7 7 8 8 8 8 9 10 10 11 11 11 11 11 11 12 12 12 13 13 13 12 12 12 11 12 13 13 14 15 15
8 8 8 8 9 9 9 9 9 8 9 8 8 9 9 9 10 10 11 11 11 12 12 12 11 12 12 13 13 13 14 14 13 13 12 12 11 12 13 13 14 15 15
9 9 9 10 9 9 9 8 9 9 10 10 10 10 10 11 11 12 12 12 12 13 13 12 12 12 13 13 14 14 14 15 14 14 13 12 12 12 13 14 14 14 15
10 9 10 10 9 9 8 9 9 10 11 11 11 11 11 12 13 13 13 13 13 13 13 14 14 14 14 14 14 15 15 15 15 15 14 13 14 14 14 14 15 15 15
12 11 10 10 10 9 10 10 10 11 12 12 13 13 14 14 14 15 15 14 14 14 14 14 14 14 14 15 15 15 15 15 16 16 16 15 16 16 16 15 16 16 16
11 11 11 10 10 10 10 11 11 12 13 13 12 14 15 16 16 16 16 15 15 14 15 15 15 14 15 15 15 16 16 16 17 17 17 17 17 17 18 17 17 17 17
11 11 11 11 12 11 12 13 13 13 13 13 13 14 15 16 17 17 17 17 16 15 15 16 15 15 15 16 16 16 17 16 17 17 17 18 18 18 18 19 18 19 19
12 12 13 13 14 14 14 14 14 14 14 14 15 15 16 17 17 18 18 18 17 16 16 16 16 16 16 16 17 17 17 17 17 18 19 19 19 19 19 20 20 20 20
14 14 13 14 14 14 14 14 15 15 15 15 15 15 15 16 16 17 17 17 16 16 17 17 17 17 17 17 17 17 18 18 18 18 19 20 20 20 20 20 21 21 20
14 13 14 15 15 14 15 15 16 16 16 16 15 15 15 16 16 16 16 17 16 16 16 16 16 17 18 18 18 18 18 19 19 19 19 20 20 21 21 21 21 22 22
14 14 15 16 16 16 16 16 16 16 16 16 15 16 16 16 16 17 17 17 16 16 15 16 16 17 17 17 18 19 19 19 20 19 19 20 20 20 21 22 22 22 22
15 15 16 17 17 17 17 16 16 16 15 16 16 16 15 16 16 17 17 16 16 16 16 16 16 16 17 17 18 19 20 20 20 20 19 19 21 22 22 22 22 23 22
16 17 17 17 17 17 17 17 16 16 16 16 16 17 16 16 16 16 16 16 17 17 16 15 16 16 17 18 18 18 19 19 20 20 20 20 20 21 21 22 22 22 23
18 18 18 18 17 17 18 17 17 16 17 17 17 17 17 16 16 16 15 16 16 16 16 16 16 16 16 17 17 18 19 19 20 21 21 20 20 20 20 22 22 22 22
18 18 18 17 18 18 18 18 17 17 17 17 17 17 17 17 17 16 15 16 16 15 16 17 17 17 17 17 18 18 18 18 19 20 20 21 21 21 21 21 21 22 22
17 17 17 17 18 18 19 18 18 17 17 17 17 17 18 17 16 16 17 17 18 18 17 17 17 17 17 17 17 18 18 18 19 19 21 21 21 21 21 21 22 22 23
17 17 17 17 18 18 19 19 18 17 17 16 16 16 17 17 17 17 17 17 17 18 18 17 17 17 17 17 17 18 19 19 19 19 20 21 21 22 22 22 23 23 23
17 17 18 19 19 19 19 20 20 19 18 18 17 16 16 17 17 17 17 17 17 17 18 17 17 17 17 17 18 18 18 19 20 20 20 20 21 22 22 22 23 24 24

GEFSSE_500_meanwind_246.txt.gz
Wind_Speed
7 7 7 7 7 7 7 6 6 5 5 5 5 5 5 5 6 6 5 6 6 6 5 6 6 5 5 6 6 6 6 6 6 6 7 7 8 10 11 11 11 11 11
8 8 8 8 7 7 7 6 6 6 6 5 5 6 6 6 6 6 6 6 6 6 6 6 7 7 6 6 7 8 8 7 7 6 7 8 9 11 12 11 11 11 11
8 8 8 8 8 8 8 7 7 6 6 6 6 6 6 6 6 7 7 6 6 7 7 7 8 8 8 8 7 8 8 8 8 7 8 8 9 10 11 12 12 12 13
8 8 8 9 9 8 8 8 8 8 7 7 7 7 7 7 7 7 7 7 7 7 8 8 8 8 9 8 8 8 8 8 9 8 8 9 9 10 11 13 14 13 13
9 9 9 10 9 9 8 8 8 9 8 8 7 7 7 7 7 7 7 8 8 8 8 9 9 9 9 9 9 9 9 10 9 9 9 10 10 11 12 12 13 13 13
9 10 10 10 10 10 9 9 9 10 9 8 8 8 8 8 8 8 8 9 9 9 9 9 9 9 10 10 10 10 10 10 9 9 9 11 12 12 12 12 13 13 13
11 11 11 10 10 10 10 10 10 10 9 9 8 8 8 9 9 9 9 10 9 9 9 9 9 10 10 10 10 11 10 10 10 10 10 10 11 11 12 13 13 13 13
11 11 12 12 11 11 11 11 11 10 9 9 9 8 8 9 9 10 10 10 10 9 9 10 10 10 10 10 10 10 10 10 11 11 10 10 11 11 12 14 14 13 13
11 11 12 13 12 11 11 11 11 10 10 10 9 9 10 10 10 10 11 11 11 11 11 11 11 11 11 10 10 11 11 11 11 10 10 10 11 11 12 13 14 14 14
12 12 12 12 11 10 10 10 10 11 11 11 11 11 11 11 11 11 11 11 11 12 12 12 12 12 12 12 12 12 12 12 11 10 10 10 10 10 11 13 14 15 15
13 13 13 13 11 11 10 10 10 12 12 12 12 12 12 12 12 11 11 11 12 12 13 12 13 13 13 13 13 13 13 13 12 11 10 10 10 10 12 12 13 14 14
13 13 14 13 12 12 11 10 11 12 13 13 13 12 12 12 12 12 12 12 13 13 13 13 13 13 14 14 14 13 13 13 12 11 10 10 11 11 12 13 13 13 13
13 13 13 12 12 12 12 12 12 13 13 13 13 13 13 13 13 13 14 14 15 15 15 14 14 14 15 15 15 14 14 13 13 12 11 11 11 11 12 13 14 15 15
13 12 12 12 11 12 13 13 14 13 13 13 14 14 14 14 14 15 15 15 16 15 15 15 15 15 15 15 15 15 15 14 14 14 13 12 12 12 12 13 14 15 15
14 13 13 12 12 13 14 13 12 13 13 14 14 15 15 15 16 16 17 17 16 15 15 16 16 15 15 15 15 15 15 15 15 13 13 13 13 13 13 13 14 15 15
15 15 15 14 13 13 13 13 14 14 14 14 14 14 14 15 16 16 16 17 17 16 16 16 16 15 15 15 15 15 15 16 16 15 15 15 14 14 14 14 14 14 15
16 16 16 15 14 14 14 14 14 15 14 15 15 16 15 15 15 16 16 17 17 16 15 16 16 16 16 15 15 14 15 16 17 17 16 16 16 16 15 15 15 16 16
17 16 17 16 15 15 16 15 15 16 15 16 17 17 17 15 15 16 17 17 17 16 16 16 16 16 16 16 15 15 15 16 16 17 17 18 18 18 17 16 16 17 17
17 17 18 18 17 17 17 16 16 16 17 17 18 18 17 16 16 16 16 17 17 16 16 16 16 16 16 16 16 16 17 17 18 18 19 19 18 18 18 18 18 18 18
17 17 18 18 18 17 17 17 17 17 17 18 18 18 17 17 17 16 16 16 17 17 16 16 16 17 17 17 17 17 18 18 18 19 19 19 19 19 19 19 18 18 19
17 17 18 18 16 17 17 17 18 18 18 18 18 18 18 18 17 17 17 16 16 17 17 17 17 17 18 18 17 18 19 19 18 19 19 19 19 20 20 19 19 19 19
18 18 18 18 17 18 18 19 19 19 19 19 18 19 18 17 17 17 17 16 17 17 17 16 16 17 18 17 18 19 19 19 19 19 19 19 19 19 19 20 20 20 20
19 19 19 18 18 19 19 19 19 20 19 19 19 18 18 17 18 18 18 17 17 17 17 17 16 16 16 18 19 19 19 19 18 18 19 19 19 19 20 20 20 19 19
19 19 19 18 18 19 19 19 19 19 19 19 19 18 18 18 18 18 18 18 18 17 18 18 17 16 16 17 17 17 17 18 17 17 18 19 19 20 20 21 21 21 21
19 19 19 18 18 18 18 18 18 18 18 19 19 19 18 18 18 18 19 19 19 18 18 18 17 17 17 17 17 17 18 18 18 18 17 18 18 19 19 20 20 21 21
20 20 19 19 18 18 18 18 18 18 18 19 19 19 19 19 18 19 18 18 19 18 18 17 18 17 17 18 18 18 18 19 19 18 18 18 18 19 19 19 20 20 21

GEFSSE_500_meanwind_252.txt.gz
Wind_Speed
7 7 7 6 6 7 7 7 7 7 6 6 7 7 7 7 7 7 6 7 7 7 7 7 7 7 6 7 6 7 7 7 8 8 8 8 9 10 10 11 12 11 10
8 7 7 7 7 7 7 7 7 7 7 7 7 7 7 7 7 7 7 8 8 8 8 8 7 8 8 7 7 7 8 8 8 9 9 9 9 10 11 11 12 11 12
8 8 7 7 7 7 8 8 8 8 8 8 8 8 7 8 7 7 8 8 8 8 8 8 8 8 8 7 7 8 9 9 8 9 9 9 10 10 12 12 12 12 12
8 7 7 7 8 8 8 9 9 9 9 8 8 8 8 8 8 8 8 8 8 8 8 9 9 8 8 8 8 9 8 9 9 9 9 9 10 11 11 12 12 12 12
7 7 7 7 8 8 9 9 9 9 9 8 9 9 9 8 8 9 8 8 8 8 8 8 9 9 9 9 8 8 8 8 9 9 9 9 10 11 12 13 13 13 13
8 8 8 8 8 9 9 9 9 8 8 8 9 9 9 8 8 9 8 8 8 8 8 8 9 9 9 9 9 8 9 9 8 9 10 10 11 12 12 13 14 14 13
9 8 9 9 9 10 10 10 9 8 8 9 9 9 9 8 8 8 8 8 8 8 8 9 9 10 10 10 9 9 9 9 8 8 9 10 11 11 13 13 14 14 14
9 8 9 9 10 10 9 9 9 8 9 9 10 9 9 9 8 8 8 8 9 9 10 10 10 10 10 10 10 10 9 9 9 9 9 8 10 11 11 11 13 13 13
9 9 9 9 9 9 9 9 9 9 8 9 10 9 9 9 9 9 9 9 10 10 11 11 10 10 10 10 10 10 10 10 10 9 9 9 9 10 10 11 11 12 12
9 9 10 9 10 10 10 10 9 10 9 10 10 10 10 9 9 9 9 10 10 11 11 11 10 10 10 10 11 11 11 11 11 9 9 9 10 10 10 11 11 11 12
10 10 10 10 10 11 10 9 10 10 10 10 10 10 10 10 10 9 10 10 11 11 11 11 11 11 11 11 11 11 11 11 11 10 9 9 10 10 10 11 11 11 11
11 11 11 11 10 11 10 10 10 10 10 10 11 11 10 10 10 10 11 11 11 12 12 11 12 11 12 12 12 12 11 10 10 9 10 10 10 11 11 11 11 11 11
12 11 11 11 11 11 10 10 10 10 10 10 10 10 10 11 11 12 12 12 12 12 12 12 12 12 12 12 11 11 11 10 11 10 10 10 11 11 11 12 12 12 12
11 12 11 12 11 10 11 11 10 10 10 10 11 11 11 12 12 12 12 12 12 13 13 12 12 12 12 12 12 12 12 12 12 12 11 11 11 12 12 12 12 12 12
11 10 11 12 11 10 10 10 10 10 10 9 10 10 11 12 12 12 13 13 13 13 12 12 12 13 13 13 13 13 13 13 13 13 13 13 13 13 13 13 13 14 13
12 11 11 12 12 12 10 11 12 12 11 9 9 11 12 12 12 13 13 13 13 13 14 14 14 14 14 15 15 15 14 14 14 15 14 13 14 14 14 14 15 15 14
12 12 11 11 12 12 11 11 12 12 12 11 12 11 11 12 13 13 13 14 15 16 16 16 15 15 15 16 16 15 15 16 15 15 15 14 14 14 15 16 16 16 16
11 11 11 11 12 12 13 12 12 12 12 12 13 12 12 13 13 14 14 15 16 16 16 15 15 14 15 15 16 16 16 17 16 15 16 16 16 16 16 16 17 18 17
11 11 11 12 13 13 13 13 12 13 13 13 13 13 13 13 14 14 15 15 16 16 15 15 15 15 15 15 16 16 16 17 17 16 17 17 17 17 18 18 17 18 18
12 12 12 13 13 14 13 13 13 13 12 13 13 14 14 14 14 15 15 15 16 17 16 15 15 15 15 15 16 16 16 17 17 17 16 17 18 18 19 19 19 19 19
12 12 13 13 14 14 14 14 14 14 14 14 14 14 14 14 14 15 16 16 16 16 15 15 15 16 16 15 15 16 17 17 18 19 18 18 18 19 19 19 19 20 20
13 13 13 14 14 15 15 15 14 14 15 14 15 15 14 14 14 15 16 16 16 15 15 14 15 15 16 16 16 17 17 18 18 19 19 19 19 19 19 19 19 19 20
14 14 14 15 15 15 15 15 14 14 14 14 15 15 14 14 14 15 15 16 16 15 16 16 15 15 16 17 18 17 17 18 18 18 18 18 18 18 19 18 19 19 19
14 14 15 15 15 15 15 14 14 14 14 14 15 14 15 15 14 15 15 15 15 15 15 16 15 15 16 17 18 18 17 17 18 18 18 18 18 18 19 19 18 19 19
15 16 15 14 14 14 14 14 14 14 15 15 15 15 15 15 15 16 16 16 16 16 15 15 14 15 15 16 17 17 17 17 17 17 18 18 18 18 19 19 19 19 20
16 16 16 15 15 15 15 14 14 15 16 16 15 15 15 15 16 16 16 16 16 16 16 15 15 15 15 16 16 16 17 17 17 17 17 17 18 19 19 20 20 20 20